SIA22 WSSS-KEWR

Flight info

Callsign SIA22
Flight time N/A
Altitude 32000
Route TOMAN5B TOMAN L625 AKMON/K0956F320 L625 ANOKI/N0513F320 L625 ABVAR/N0500F350 L625 MEVIN B462 KAZIK Y59 AZAMA Y57 POROT/N0487F370 Y57 PUTER A590 POOFF/N0484F390 A590 HAMND DCT TED J511 GKN J124 ORT DCT 63N140W 63N130W/N0488F410 62N120W 59N110W 5530N10000W DCT MISAX DCT SSM DCT BUF DCT HNK FLOSI4
Aircraft A359/H-SDE2E3GHIJ3J4J5LM1ORWXY/LB1D1

Departure

Time 2026-05-05 20:50
Airport Singapore Changi Airport (WSSS)

Arrival

Time N/A
Airport Newark Liberty International Airport (KEWR)
Time Latitude Longitude Altitude Speed Heading
2026-05-05 20:07 1.36235 103.98807 37 ft 0 kts 113°
2026-05-05 20:40 1.36245 103.98785 35 ft 4 kts 113°
2026-05-05 20:40 1.36255 103.98761 36 ft 4 kts 113°
2026-05-05 20:40 1.36265 103.98738 34 ft 4 kts 104°
2026-05-05 20:40 1.36263 103.98717 32 ft 4 kts 43°
2026-05-05 20:41 1.36241 103.98704 33 ft 4 kts 22°
2026-05-05 20:41 1.36231 103.98699 34 ft 1 kts 22°
2026-05-05 20:41 1.36230 103.98699 34 ft 0 kts 22°
2026-05-05 20:44 1.36245 103.98706 33 ft 9 kts 23°
2026-05-05 20:44 1.36351 103.98750 36 ft 24 kts 22°
2026-05-05 20:44 1.36500 103.98813 36 ft 15 kts 23°
2026-05-05 20:44 1.36586 103.98809 36 ft 12 kts 352°
2026-05-05 20:45 1.36756 103.98822 36 ft 11 kts 24°
2026-05-05 20:45 1.36800 103.98882 36 ft 14 kts 98°
2026-05-05 20:45 1.36758 103.98988 36 ft 19 kts 113°
2026-05-05 20:46 1.36700 103.99124 36 ft 24 kts 113°
2026-05-05 20:46 1.36629 103.99290 36 ft 28 kts 113°
2026-05-05 20:46 1.36548 103.99476 36 ft 24 kts 113°
2026-05-05 20:46 1.36491 103.99610 36 ft 20 kts 113°
2026-05-05 20:47 1.36442 103.99724 36 ft 14 kts 113°
2026-05-05 20:47 1.36412 103.99794 36 ft 6 kts 113°
2026-05-05 20:47 1.36408 103.99803 36 ft 0 kts 113°
2026-05-05 20:47 1.36408 103.99804 36 ft 1 kts 113°
2026-05-05 20:48 1.36395 103.99834 36 ft 8 kts 113°
2026-05-05 20:48 1.36338 103.99875 36 ft 14 kts 166°
2026-05-05 20:48 1.36236 103.99887 36 ft 15 kts 174°
2026-05-05 20:48 1.36155 103.99882 36 ft 10 kts 201°
2026-05-05 20:49 1.36135 103.99873 36 ft 0 kts 205°
2026-05-05 20:49 1.36129 103.99870 36 ft 7 kts 205°
2026-05-05 20:49 1.35949 103.99791 36 ft 56 kts 202°
2026-05-05 20:49 1.35405 103.99562 36 ft 112 kts 203°
2026-05-05 20:50 1.34527 103.99192 37 ft 160 kts 202°
2026-05-05 20:50 1.33783 103.98881 65 ft 185 kts 202°
2026-05-05 20:50 1.32270 103.98265 924 ft 178 kts 202°
2026-05-05 20:50 1.31084 103.97755 1274 ft 196 kts 203°
2026-05-05 20:51 1.29788 103.97199 1447 ft 209 kts 202°
2026-05-05 20:51 1.28401 103.96608 1581 ft 223 kts 202°
2026-05-05 20:51 1.26924 103.95982 1713 ft 239 kts 202°
2026-05-05 20:51 1.25356 103.95335 1876 ft 253 kts 200°
2026-05-05 20:52 1.23613 103.94999 2223 ft 258 kts 177°
2026-05-05 20:52 1.21893 103.95479 2606 ft 260 kts 149°
2026-05-05 20:52 1.20896 103.96195 2906 ft 262 kts 140°
2026-05-05 20:52 1.19540 103.97380 3319 ft 265 kts 138°
2026-05-05 20:53 1.18152 103.98618 3753 ft 267 kts 139°
2026-05-05 20:53 1.16758 103.99851 4187 ft 269 kts 139°
2026-05-05 20:53 1.15357 104.01102 4630 ft 272 kts 136°
2026-05-05 20:53 1.14222 104.02613 5027 ft 274 kts 117°
2026-05-05 20:54 1.13416 104.04340 5450 ft 275 kts 114°
2026-05-05 20:54 1.12660 104.06108 5841 ft 277 kts 113°
2026-05-05 20:54 1.11899 104.07883 5969 ft 278 kts 114°
2026-05-05 20:54 1.11130 104.09661 5973 ft 279 kts 114°
2026-05-05 20:55 1.10354 104.11444 5976 ft 280 kts 114°
2026-05-05 20:55 1.09575 104.13229 5973 ft 281 kts 114°
2026-05-05 20:55 1.08789 104.15027 5976 ft 281 kts 114°
2026-05-05 20:55 1.08100 104.16857 5965 ft 282 kts 103°
2026-05-05 20:56 1.07948 104.18803 6070 ft 282 kts 89°
2026-05-05 20:56 1.08015 104.20749 6416 ft 284 kts 88°
2026-05-05 20:56 1.08098 104.22722 6865 ft 284 kts 88°
2026-05-05 20:56 1.08177 104.24699 7295 ft 285 kts 88°
2026-05-05 20:57 1.08251 104.26681 7709 ft 286 kts 88°
2026-05-05 20:57 1.08325 104.28678 8129 ft 288 kts 88°
2026-05-05 20:57 1.08397 104.30681 8557 ft 289 kts 88°
2026-05-05 20:57 1.08468 104.32695 8893 ft 291 kts 88°
2026-05-05 20:58 1.08541 104.34723 8979 ft 291 kts 88°
2026-05-05 20:58 1.08612 104.36751 9146 ft 294 kts 88°
2026-05-05 20:58 1.08685 104.38800 9573 ft 295 kts 88°
2026-05-05 20:58 1.08757 104.40846 10018 ft 295 kts 88°
2026-05-05 20:59 1.08831 104.42920 10258 ft 303 kts 88°
2026-05-05 20:59 1.09160 104.45029 10372 ft 315 kts 70°
2026-05-05 20:59 1.10348 104.46892 10505 ft 325 kts 47°
2026-05-05 20:59 1.11943 104.48508 10663 ft 336 kts 45°
2026-05-05 21:00 1.13645 104.50156 10805 ft 346 kts 45°
2026-05-05 21:00 1.15394 104.51860 10959 ft 356 kts 45°
2026-05-05 21:00 1.17182 104.53618 11113 ft 365 kts 45°
2026-05-05 21:00 1.19008 104.55421 11235 ft 374 kts 45°
2026-05-05 21:01 1.20878 104.57274 11391 ft 382 kts 45°
2026-05-05 21:01 1.22789 104.59169 11528 ft 390 kts 45°
2026-05-05 21:01 1.24730 104.61094 11779 ft 394 kts 45°
2026-05-05 21:01 1.26680 104.63029 12102 ft 396 kts 45°
2026-05-05 21:02 1.28638 104.64972 12437 ft 398 kts 45°
2026-05-05 21:02 1.30603 104.66926 12750 ft 399 kts 46°
2026-05-05 21:02 1.32385 104.69052 13069 ft 399 kts 58°
2026-05-05 21:02 1.33503 104.71579 13365 ft 399 kts 76°
2026-05-05 21:03 1.33851 104.74304 13677 ft 400 kts 88°
2026-05-05 21:03 1.33927 104.77121 13932 ft 402 kts 89°
2026-05-05 21:03 1.33974 104.79924 14202 ft 404 kts 89°
2026-05-05 21:03 1.34027 104.82701 14466 ft 406 kts 89°
2026-05-05 21:04 1.34088 104.85560 14730 ft 407 kts 89°
2026-05-05 21:04 1.34152 104.88363 14994 ft 409 kts 89°
2026-05-05 21:04 1.34217 104.91208 15264 ft 411 kts 89°
2026-05-05 21:04 1.34283 104.94069 15518 ft 412 kts 89°
2026-05-05 21:05 1.34352 104.96935 15784 ft 414 kts 89°
2026-05-05 21:05 1.34421 104.99819 16054 ft 416 kts 89°
2026-05-05 21:05 1.34491 105.02714 16321 ft 417 kts 89°
2026-05-05 21:05 1.34561 105.05619 16581 ft 419 kts 89°
2026-05-05 21:06 1.34631 105.08533 16838 ft 421 kts 89°
2026-05-05 21:06 1.34701 105.11459 17096 ft 422 kts 89°
2026-05-05 21:06 1.34771 105.14397 17350 ft 424 kts 89°
2026-05-05 21:06 1.34842 105.17346 17595 ft 425 kts 89°
2026-05-05 21:07 1.34913 105.20309 17835 ft 427 kts 89°
2026-05-05 21:07 1.34984 105.23284 18086 ft 429 kts 89°
2026-05-05 21:07 1.35055 105.26268 18276 ft 430 kts 89°
2026-05-05 21:07 1.35127 105.29260 18490 ft 432 kts 89°
2026-05-05 21:08 1.35199 105.32261 18713 ft 433 kts 88°
2026-05-05 21:08 1.35270 105.35269 18921 ft 434 kts 88°
2026-05-05 21:08 1.35342 105.38286 19119 ft 435 kts 88°
2026-05-05 21:08 1.35415 105.41314 19320 ft 436 kts 88°
2026-05-05 21:09 1.35487 105.44352 19515 ft 438 kts 88°
2026-05-05 21:09 1.35560 105.47395 19722 ft 439 kts 88°
2026-05-05 21:09 1.35632 105.50452 19913 ft 440 kts 88°
2026-05-05 21:09 1.35703 105.53512 20112 ft 441 kts 88°
2026-05-05 21:10 1.35774 105.56584 20304 ft 443 kts 88°
2026-05-05 21:10 1.35847 105.59658 20500 ft 444 kts 88°
2026-05-05 21:10 1.35920 105.62749 20698 ft 445 kts 88°
2026-05-05 21:10 1.35993 105.65846 20882 ft 446 kts 88°
2026-05-05 21:11 1.36173 105.68941 21066 ft 447 kts 83°
2026-05-05 21:11 1.36754 105.71998 21249 ft 448 kts 74°
2026-05-05 21:11 1.37812 105.74924 21421 ft 449 kts 65°
2026-05-05 21:11 1.39333 105.77654 21620 ft 451 kts 56°
2026-05-05 21:12 1.41284 105.80115 21783 ft 453 kts 47°
2026-05-05 21:12 1.43610 105.82233 21979 ft 454 kts 38°
2026-05-05 21:12 1.46251 105.83978 22147 ft 456 kts 31°
2026-05-05 21:12 1.49028 105.85527 22305 ft 458 kts 29°
2026-05-05 21:13 1.51861 105.86999 22458 ft 460 kts 28°
2026-05-05 21:13 1.54731 105.88446 22676 ft 461 kts 27°
2026-05-05 21:13 1.57593 105.89883 22836 ft 462 kts 27°
2026-05-05 21:13 1.60464 105.91334 23007 ft 463 kts 28°
2026-05-05 21:14 1.63335 105.92799 23173 ft 464 kts 28°
2026-05-05 21:14 1.66209 105.94276 23348 ft 465 kts 28°
2026-05-05 21:14 1.69088 105.95762 23490 ft 466 kts 28°
2026-05-05 21:14 1.71973 105.97256 23624 ft 467 kts 28°
2026-05-05 21:15 1.74867 105.98756 23753 ft 468 kts 28°
2026-05-05 21:15 1.77761 106.00256 23884 ft 469 kts 28°
2026-05-05 21:15 1.80662 106.01760 24015 ft 471 kts 28°
2026-05-05 21:15 1.83566 106.03264 24147 ft 472 kts 28°
2026-05-05 21:16 1.86492 106.04780 24260 ft 474 kts 28°
2026-05-05 21:16 1.89424 106.06298 24388 ft 475 kts 28°
2026-05-05 21:16 1.92365 106.07823 24525 ft 476 kts 28°
2026-05-05 21:16 1.95304 106.09348 24653 ft 477 kts 28°
2026-05-05 21:17 1.98252 106.10873 24786 ft 478 kts 28°
2026-05-05 21:17 2.01207 106.12399 24928 ft 479 kts 28°
2026-05-05 21:17 2.04165 106.13926 25043 ft 480 kts 28°
2026-05-05 21:17 2.07133 106.15460 25174 ft 481 kts 28°
2026-05-05 21:18 2.10106 106.16996 25316 ft 481 kts 28°
2026-05-05 21:18 2.13041 106.18514 25441 ft 482 kts 28°
2026-05-05 21:18 2.16034 106.20063 25573 ft 483 kts 28°
2026-05-05 21:18 2.19023 106.21609 25708 ft 484 kts 28°
2026-05-05 21:19 2.22021 106.23160 25838 ft 485 kts 28°
2026-05-05 21:19 2.25023 106.24713 25975 ft 486 kts 28°
2026-05-05 21:19 2.28033 106.26271 26109 ft 487 kts 28°
2026-05-05 21:19 2.31043 106.27829 26243 ft 488 kts 28°
2026-05-05 21:20 2.34066 106.29393 26377 ft 489 kts 28°
2026-05-05 21:20 2.37096 106.30962 26530 ft 490 kts 28°
2026-05-05 21:20 2.40128 106.32531 26647 ft 492 kts 28°
2026-05-05 21:20 2.43164 106.34102 26780 ft 493 kts 28°
2026-05-05 21:21 2.46218 106.35683 26910 ft 494 kts 28°
2026-05-05 21:21 2.49270 106.37263 27040 ft 495 kts 28°
2026-05-05 21:21 2.52329 106.38846 27172 ft 496 kts 28°
2026-05-05 21:21 2.55392 106.40432 27300 ft 497 kts 28°
2026-05-05 21:22 2.58505 106.42048 27431 ft 497 kts 28°
2026-05-05 21:22 2.61581 106.43643 27562 ft 498 kts 28°
2026-05-05 21:22 2.64661 106.45238 27678 ft 499 kts 28°
2026-05-05 21:22 2.67752 106.46837 27799 ft 500 kts 28°
2026-05-05 21:23 2.70847 106.48439 27920 ft 501 kts 28°
2026-05-05 21:23 2.73903 106.50021 28043 ft 502 kts 28°
2026-05-05 21:23 2.77052 106.51657 28157 ft 503 kts 28°
2026-05-05 21:23 2.80160 106.53269 28269 ft 504 kts 28°
2026-05-05 21:24 2.83276 106.54881 28374 ft 505 kts 28°
2026-05-05 21:24 2.86399 106.56500 28489 ft 505 kts 28°
2026-05-05 21:24 2.89482 106.58096 28592 ft 506 kts 28°
2026-05-05 21:24 2.92654 106.59736 28691 ft 507 kts 28°
2026-05-05 21:25 2.95794 106.61357 28805 ft 507 kts 28°
2026-05-05 21:25 2.98924 106.62975 28980 ft 506 kts 28°
2026-05-05 21:25 3.02054 106.64594 29127 ft 506 kts 28°
2026-05-05 21:25 3.05179 106.66219 29261 ft 506 kts 28°
2026-05-05 21:26 3.08260 106.67824 29399 ft 506 kts 28°
2026-05-05 21:26 3.11379 106.69444 29533 ft 505 kts 28°
2026-05-05 21:26 3.14505 106.71059 29677 ft 506 kts 28°
2026-05-05 21:26 3.17673 106.72692 29777 ft 506 kts 28°
2026-05-05 21:27 3.20801 106.74305 29898 ft 505 kts 28°
2026-05-05 21:27 3.23884 106.75897 30035 ft 505 kts 28°
2026-05-05 21:27 3.27005 106.77511 30138 ft 505 kts 28°
2026-05-05 21:27 3.30129 106.79128 30259 ft 505 kts 28°
2026-05-05 21:28 3.33241 106.80740 30403 ft 504 kts 28°
2026-05-05 21:28 3.36358 106.82354 30507 ft 504 kts 28°
2026-05-05 21:28 3.39474 106.83969 30622 ft 504 kts 28°
2026-05-05 21:28 3.42586 106.85582 30742 ft 504 kts 28°
2026-05-05 21:29 3.45702 106.87197 30847 ft 504 kts 28°
2026-05-05 21:29 3.48812 106.88808 30977 ft 504 kts 28°
2026-05-05 21:29 3.51923 106.90420 31087 ft 504 kts 28°
2026-05-05 21:29 3.55025 106.92062 31188 ft 503 kts 31°
2026-05-05 21:30 3.57974 106.93949 31321 ft 502 kts 34°
2026-05-05 21:30 3.60860 106.95917 31428 ft 502 kts 36°
2026-05-05 21:30 3.63730 106.97921 31549 ft 502 kts 36°
2026-05-05 21:30 3.66582 106.99937 31659 ft 502 kts 36°
2026-05-05 21:31 3.72276 107.03981 31872 ft 502 kts 36°
2026-05-05 21:31 3.75122 107.05999 31985 ft 502 kts 36°
2026-05-05 21:31 3.77968 107.08015 32080 ft 501 kts 36°
2026-05-05 21:32 3.83667 107.12043 32288 ft 501 kts 36°
2026-05-05 21:32 3.86518 107.14057 32401 ft 501 kts 36°
2026-05-05 21:32 3.89372 107.16073 32495 ft 501 kts 36°
2026-05-05 21:33 3.94100 107.19413 32673 ft 501 kts 36°
2026-05-05 21:33 3.99809 107.23447 32709 ft 505 kts 36°
2026-05-05 21:34 4.05564 107.27516 32823 ft 507 kts 36°
2026-05-05 21:34 4.11330 107.31591 32824 ft 507 kts 36°
2026-05-05 21:35 4.17088 107.35662 32824 ft 506 kts 36°
2026-05-05 21:35 4.22844 107.39733 32824 ft 506 kts 36°
2026-05-05 21:36 4.28603 107.43807 32826 ft 507 kts 36°
2026-05-05 21:36 4.34365 107.47883 32829 ft 507 kts 36°
2026-05-05 21:37 4.40123 107.51957 32829 ft 506 kts 36°
2026-05-05 21:37 4.45874 107.56027 32829 ft 506 kts 36°
2026-05-05 21:38 4.51621 107.60095 32830 ft 506 kts 36°
2026-05-05 21:38 4.57368 107.64164 32829 ft 506 kts 36°
2026-05-05 21:39 4.63115 107.68233 32831 ft 506 kts 36°
2026-05-05 21:39 4.68865 107.72306 32831 ft 506 kts 36°
2026-05-05 21:40 4.74608 107.76375 32831 ft 505 kts 36°
2026-05-05 21:40 4.80347 107.80442 32832 ft 505 kts 36°
2026-05-05 21:41 4.86088 107.84510 32831 ft 505 kts 36°
2026-05-05 21:41 4.91821 107.88575 32831 ft 505 kts 36°
2026-05-05 21:42 4.97560 107.92644 32832 ft 505 kts 36°
2026-05-05 21:42 5.03303 107.96705 32832 ft 505 kts 36°
2026-05-05 21:43 5.09060 108.00740 32829 ft 505 kts 35°
2026-05-05 21:43 5.14818 108.04776 32831 ft 504 kts 36°
2026-05-05 21:44 5.20562 108.08809 32832 ft 504 kts 36°
2026-05-05 21:44 5.26317 108.12854 32835 ft 504 kts 36°
2026-05-05 21:45 5.32068 108.16897 32831 ft 504 kts 36°
2026-05-05 21:45 5.37817 108.20941 32834 ft 504 kts 36°
2026-05-05 21:46 5.43527 108.24957 32833 ft 505 kts 36°
2026-05-05 21:46 5.49275 108.29001 32834 ft 504 kts 36°
2026-05-05 21:47 5.55019 108.33043 32835 ft 504 kts 36°
2026-05-05 21:47 5.60767 108.37089 32835 ft 504 kts 36°
2026-05-05 21:48 5.66512 108.41134 32833 ft 504 kts 36°
2026-05-05 21:48 5.72264 108.45184 32834 ft 505 kts 36°
2026-05-05 21:49 5.78007 108.49230 32841 ft 504 kts 35°
2026-05-05 21:49 5.83754 108.53280 32837 ft 504 kts 35°
2026-05-05 21:50 5.89497 108.57326 32837 ft 504 kts 35°
2026-05-05 21:50 5.95239 108.61374 32837 ft 504 kts 35°
2026-05-05 21:51 6.00979 108.65422 32837 ft 504 kts 35°
2026-05-05 21:51 6.06724 108.69474 32840 ft 504 kts 35°
2026-05-05 21:52 6.15334 108.75548 32841 ft 505 kts 36°
2026-05-05 21:53 6.21096 108.79615 32844 ft 506 kts 36°
2026-05-05 21:53 6.26862 108.83686 32843 ft 506 kts 36°
2026-05-05 21:54 6.32623 108.87754 32843 ft 506 kts 36°
2026-05-05 21:54 6.38381 108.91821 32842 ft 506 kts 36°
2026-05-05 21:55 6.44143 108.95893 32841 ft 506 kts 36°
2026-05-05 21:55 6.49902 108.99963 32845 ft 506 kts 36°
2026-05-05 21:56 6.55702 109.04063 32845 ft 506 kts 36°
2026-05-05 21:56 6.61422 109.08109 32848 ft 506 kts 36°
2026-05-05 21:57 6.67182 109.12184 32847 ft 506 kts 36°
2026-05-05 21:57 6.72945 109.16261 32848 ft 506 kts 36°
2026-05-05 21:58 6.78704 109.20337 32847 ft 506 kts 36°
2026-05-05 21:58 6.84464 109.24415 32847 ft 506 kts 36°
2026-05-05 21:59 6.90213 109.28487 32848 ft 505 kts 36°
2026-05-05 21:59 6.95957 109.32556 32848 ft 505 kts 36°
2026-05-05 22:00 7.01707 109.36631 32849 ft 505 kts 36°
2026-05-05 22:00 7.07457 109.40707 32851 ft 505 kts 36°
2026-05-05 22:01 7.13205 109.44783 32852 ft 505 kts 36°
2026-05-05 22:01 7.18948 109.48856 32849 ft 505 kts 36°
2026-05-05 22:02 7.24684 109.52926 32849 ft 505 kts 36°
2026-05-05 22:02 7.30431 109.57005 32850 ft 505 kts 36°
2026-05-05 22:03 7.36170 109.61079 32849 ft 504 kts 36°
2026-05-05 22:03 7.41908 109.65155 32850 ft 504 kts 36°
2026-05-05 22:04 7.47641 109.69228 32851 ft 504 kts 36°
2026-05-05 22:04 7.53375 109.73303 32851 ft 504 kts 36°
2026-05-05 22:05 7.59118 109.77385 32851 ft 504 kts 36°
2026-05-05 22:05 7.64853 109.81464 32850 ft 504 kts 36°
2026-05-05 22:06 7.70586 109.85543 32850 ft 504 kts 36°
2026-05-05 22:06 7.76318 109.89621 32851 ft 504 kts 36°
2026-05-05 22:07 7.82044 109.93698 32851 ft 504 kts 36°
2026-05-05 22:07 7.87779 109.97781 32852 ft 505 kts 36°
2026-05-05 22:08 7.93528 110.01877 32852 ft 506 kts 36°
2026-05-05 22:08 7.99272 110.05971 32850 ft 506 kts 36°
2026-05-05 22:09 8.05025 110.10072 32853 ft 506 kts 36°
2026-05-05 22:09 8.10773 110.14171 32851 ft 506 kts 36°
2026-05-05 22:10 8.16511 110.18264 32852 ft 505 kts 36°
2026-05-05 22:10 8.22255 110.22365 32854 ft 504 kts 36°
2026-05-05 22:11 8.27967 110.26470 32855 ft 504 kts 36°
2026-05-05 22:11 8.33676 110.30588 32855 ft 504 kts 36°
2026-05-05 22:12 8.39378 110.34700 32851 ft 504 kts 36°
2026-05-05 22:12 8.45090 110.38818 32854 ft 504 kts 36°
2026-05-05 22:13 8.50796 110.42932 32853 ft 504 kts 36°
2026-05-05 22:13 8.55541 110.46355 32851 ft 504 kts 36°
2026-05-05 22:14 8.62190 110.51153 32851 ft 506 kts 36°
2026-05-05 22:14 8.66995 110.54622 32854 ft 507 kts 36°
2026-05-05 22:15 8.72731 110.58763 32852 ft 506 kts 36°
2026-05-05 22:15 8.78462 110.62903 32854 ft 506 kts 36°
2026-05-05 22:16 8.84193 110.67045 32856 ft 506 kts 36°
2026-05-05 22:16 8.89926 110.71190 32852 ft 505 kts 36°
2026-05-05 22:17 8.95638 110.75321 32852 ft 504 kts 36°
2026-05-05 22:17 9.01302 110.79418 32855 ft 504 kts 36°
2026-05-05 22:18 9.07010 110.83549 32854 ft 503 kts 36°
2026-05-05 22:18 9.12701 110.87671 32852 ft 503 kts 36°
2026-05-05 22:19 9.18382 110.91786 32855 ft 503 kts 36°
2026-05-05 22:19 9.24110 110.95938 32852 ft 504 kts 36°
2026-05-05 22:20 9.29773 111.00043 32856 ft 504 kts 36°
2026-05-05 22:20 9.35469 111.04174 32860 ft 504 kts 36°
2026-05-05 22:21 9.41173 111.08312 32859 ft 504 kts 36°
2026-05-05 22:21 9.46870 111.12447 32858 ft 504 kts 36°
2026-05-05 22:22 9.52566 111.16583 32858 ft 504 kts 36°
2026-05-05 22:22 9.58261 111.20728 32861 ft 505 kts 36°
2026-05-05 22:23 9.63968 111.24874 32859 ft 505 kts 36°
2026-05-05 22:23 9.69678 111.29022 32861 ft 505 kts 36°
2026-05-05 22:24 9.75376 111.33166 32860 ft 505 kts 36°
2026-05-05 22:24 9.81084 111.37319 32858 ft 505 kts 36°
2026-05-05 22:25 9.86786 111.41470 32860 ft 505 kts 36°
2026-05-05 22:25 9.92516 111.45644 32859 ft 508 kts 36°
2026-05-05 22:26 9.98268 111.49836 32858 ft 509 kts 36°
2026-05-05 22:26 10.04020 111.54029 32863 ft 509 kts 36°
2026-05-05 22:27 10.09771 111.58223 32861 ft 509 kts 36°
2026-05-05 22:27 10.15516 111.62415 32861 ft 509 kts 36°
2026-05-05 22:28 10.21265 111.66612 32863 ft 509 kts 36°
2026-05-05 22:28 10.27025 111.70819 32859 ft 510 kts 36°
2026-05-05 22:29 10.32789 111.75031 32861 ft 510 kts 36°
2026-05-05 22:29 10.38552 111.79243 32862 ft 510 kts 36°
2026-05-05 22:30 10.44317 111.83460 32861 ft 510 kts 36°
2026-05-05 22:30 10.50074 111.87672 32861 ft 510 kts 35°
2026-05-05 22:31 10.55830 111.91885 32863 ft 509 kts 36°
2026-05-05 22:31 10.61574 111.96092 32861 ft 508 kts 35°
2026-05-05 22:32 10.67312 112.00296 32861 ft 509 kts 35°
2026-05-05 22:32 10.73053 112.04505 32861 ft 508 kts 36°
2026-05-05 22:33 10.78788 112.08711 32863 ft 508 kts 36°
2026-05-05 22:33 10.84524 112.12920 32861 ft 508 kts 36°
2026-05-05 22:34 10.90256 112.17129 32861 ft 507 kts 35°
2026-05-05 22:34 10.95935 112.21302 32861 ft 507 kts 35°
2026-05-05 22:35 11.01657 112.25495 32862 ft 507 kts 35°
2026-05-05 22:35 11.07414 112.29696 32862 ft 507 kts 35°
2026-05-05 22:36 11.13141 112.33881 32866 ft 507 kts 35°
2026-05-05 22:36 11.18830 112.38044 32869 ft 507 kts 35°
2026-05-05 22:37 11.24556 112.42239 32866 ft 507 kts 35°
2026-05-05 22:37 11.30285 112.46439 32869 ft 507 kts 35°
2026-05-05 22:38 11.36011 112.50638 32869 ft 507 kts 35°
2026-05-05 22:38 11.41739 112.54840 32867 ft 507 kts 35°
2026-05-05 22:39 11.47458 112.59038 32868 ft 507 kts 35°
2026-05-05 22:39 11.53177 112.63249 32868 ft 507 kts 34°
2026-05-05 22:40 11.58897 112.67464 32871 ft 507 kts 35°
2026-05-05 22:40 11.64604 112.71672 32871 ft 507 kts 34°
2026-05-05 22:41 11.70323 112.75891 32868 ft 507 kts 34°
2026-05-05 22:41 11.76034 112.80106 32867 ft 507 kts 35°
2026-05-05 22:42 11.81749 112.84326 32872 ft 507 kts 34°
2026-05-05 22:42 11.87477 112.88557 32872 ft 508 kts 34°
2026-05-05 22:43 11.93200 112.92787 32874 ft 508 kts 34°
2026-05-05 22:43 11.98922 112.97018 32873 ft 508 kts 34°
2026-05-05 22:44 12.04649 113.01257 32871 ft 508 kts 35°
2026-05-05 22:44 12.10367 113.05489 32877 ft 508 kts 35°
2026-05-05 22:45 12.16094 113.09732 32876 ft 509 kts 34°
2026-05-05 22:45 12.21822 113.13977 32877 ft 509 kts 34°
2026-05-05 22:46 12.27547 113.18223 32876 ft 508 kts 34°
2026-05-05 22:46 12.33272 113.22471 32874 ft 508 kts 34°
2026-05-05 22:47 12.38994 113.26723 32878 ft 508 kts 34°
2026-05-05 22:47 12.44718 113.30967 32879 ft 508 kts 34°
2026-05-05 22:48 12.50454 113.35215 32879 ft 509 kts 34°
2026-05-05 22:48 12.56183 113.39462 32882 ft 509 kts 34°
2026-05-05 22:49 12.61921 113.43722 32881 ft 509 kts 34°
2026-05-05 22:49 12.67649 113.47977 32881 ft 509 kts 34°
2026-05-05 22:50 12.73376 113.52234 32881 ft 509 kts 34°
2026-05-05 22:50 12.79105 113.56495 32881 ft 509 kts 34°
2026-05-05 22:51 12.84828 113.60754 32882 ft 508 kts 34°
2026-05-05 22:51 12.90548 113.65013 32882 ft 508 kts 34°
2026-05-05 22:52 12.96273 113.69278 32884 ft 508 kts 34°
2026-05-05 22:52 13.01997 113.73545 32884 ft 508 kts 34°
2026-05-05 22:53 13.07716 113.77811 32884 ft 509 kts 34°
2026-05-05 22:53 13.13439 113.82082 32884 ft 509 kts 34°
2026-05-05 22:54 13.19122 113.86326 32881 ft 509 kts 34°
2026-05-05 22:54 13.24846 113.90603 32882 ft 509 kts 34°
2026-05-05 22:55 13.30569 113.94881 32884 ft 509 kts 34°
2026-05-05 22:55 13.36289 113.99161 32885 ft 509 kts 34°
2026-05-05 22:56 13.42016 114.03447 32887 ft 509 kts 34°
2026-05-05 22:56 13.47733 114.07730 32889 ft 509 kts 34°
2026-05-05 22:57 13.52526 114.11322 32890 ft 509 kts 34°
2026-05-05 22:57 13.58245 114.15610 32889 ft 509 kts 34°
2026-05-05 22:58 13.63964 114.19900 32889 ft 509 kts 34°
2026-05-05 22:58 13.69676 114.24189 32893 ft 509 kts 34°
2026-05-05 22:59 13.75397 114.28486 32892 ft 509 kts 34°
2026-05-05 22:59 13.81116 114.32786 32892 ft 509 kts 34°
2026-05-05 23:00 13.89650 114.39205 32891 ft 509 kts 34°
2026-05-05 23:00 13.95365 114.43519 32893 ft 509 kts 36°
2026-05-05 23:01 14.00555 114.48491 32890 ft 510 kts 44°
2026-05-05 23:01 14.05470 114.53775 32895 ft 511 kts 45°
2026-05-05 23:02 14.10334 114.59110 32895 ft 511 kts 45°
2026-05-05 23:02 14.15205 114.64448 32895 ft 511 kts 45°
2026-05-05 23:03 14.20080 114.69774 32898 ft 511 kts 45°
2026-05-05 23:03 14.24959 114.75100 32897 ft 511 kts 45°
2026-05-05 23:04 14.29844 114.80435 32898 ft 511 kts 45°
2026-05-05 23:04 14.34727 114.85772 32898 ft 512 kts 45°
2026-05-05 23:05 14.39602 114.91106 33263 ft 507 kts 45°
2026-05-05 23:05 14.42014 114.93746 33550 ft 505 kts 45°
2026-05-05 23:05 14.44414 114.96375 33768 ft 504 kts 45°
2026-05-05 23:06 14.46815 114.99004 33915 ft 503 kts 45°
2026-05-05 23:06 14.49215 115.01633 34060 ft 503 kts 45°
2026-05-05 23:06 14.51611 115.04258 34176 ft 503 kts 45°
2026-05-05 23:06 14.54006 115.06882 34297 ft 503 kts 45°
2026-05-05 23:07 14.56407 115.09516 34427 ft 502 kts 45°
2026-05-05 23:07 14.58803 115.12144 34526 ft 503 kts 45°
2026-05-05 23:07 14.61196 115.14770 34628 ft 503 kts 45°
2026-05-05 23:07 14.63594 115.17403 34766 ft 502 kts 45°
2026-05-05 23:08 14.68383 115.22662 34895 ft 504 kts 45°
2026-05-05 23:08 14.73208 115.27964 34896 ft 508 kts 45°
2026-05-05 23:09 14.78047 115.33286 34901 ft 508 kts 45°
2026-05-05 23:09 14.82887 115.38614 34900 ft 508 kts 45°
2026-05-05 23:10 14.87685 115.43900 34900 ft 507 kts 44°
2026-05-05 23:10 14.92514 115.49222 34900 ft 507 kts 44°
2026-05-05 23:11 14.97343 115.54548 34903 ft 507 kts 44°
2026-05-05 23:11 15.02173 115.59879 34903 ft 507 kts 44°
2026-05-05 23:12 15.06999 115.65209 34901 ft 507 kts 44°
2026-05-05 23:12 15.11819 115.70537 34900 ft 507 kts 44°
2026-05-05 23:13 15.16644 115.75874 34903 ft 508 kts 44°
2026-05-05 23:13 15.21464 115.81219 34908 ft 508 kts 44°
2026-05-05 23:14 15.26282 115.86565 34905 ft 508 kts 44°
2026-05-05 23:14 15.31101 115.91910 34905 ft 508 kts 44°
2026-05-05 23:15 15.35922 115.97257 34908 ft 508 kts 44°
2026-05-05 23:15 15.40743 116.02597 34915 ft 508 kts 44°
2026-05-05 23:16 15.45563 116.07942 34908 ft 508 kts 45°
2026-05-05 23:16 15.50381 116.13296 34908 ft 508 kts 45°
2026-05-05 23:17 15.55200 116.18657 34911 ft 508 kts 45°
2026-05-05 23:17 15.60013 116.24017 34911 ft 508 kts 45°
2026-05-05 23:18 15.64824 116.29376 34914 ft 507 kts 45°
2026-05-05 23:18 15.69633 116.34738 34918 ft 507 kts 45°
2026-05-05 23:19 15.74438 116.40100 34914 ft 507 kts 45°
2026-05-05 23:19 15.79242 116.45465 34914 ft 507 kts 45°
2026-05-05 23:20 15.84043 116.50830 34914 ft 507 kts 45°
2026-05-05 23:20 15.88841 116.56196 34914 ft 507 kts 45°
2026-05-05 23:21 15.93642 116.61568 34916 ft 507 kts 45°
2026-05-05 23:21 15.98441 116.66943 34918 ft 507 kts 45°
2026-05-05 23:22 16.03241 116.72323 34917 ft 508 kts 45°
2026-05-05 23:22 16.08052 116.77719 34917 ft 508 kts 45°
2026-05-05 23:23 16.12856 116.83112 34914 ft 508 kts 45°
2026-05-05 23:23 16.17659 116.88508 34913 ft 508 kts 45°
2026-05-05 23:24 16.22454 116.93899 34917 ft 507 kts 45°
2026-05-05 23:24 16.27245 116.99290 34918 ft 509 kts 45°
2026-05-05 23:25 16.32051 117.04701 34920 ft 509 kts 45°
2026-05-05 23:25 16.36859 117.10120 34921 ft 509 kts 45°
2026-05-05 23:26 16.41663 117.15538 34917 ft 509 kts 45°
2026-05-05 23:26 16.46465 117.20958 34917 ft 508 kts 45°
2026-05-05 23:27 16.51255 117.26373 34923 ft 508 kts 45°
2026-05-05 23:27 16.56049 117.31791 34916 ft 509 kts 45°
2026-05-05 23:28 16.60854 117.37225 34917 ft 510 kts 45°
2026-05-05 23:28 16.65659 117.42667 34915 ft 510 kts 45°
2026-05-05 23:29 16.70468 117.48117 34916 ft 510 kts 45°
2026-05-05 23:29 16.75269 117.53562 34915 ft 510 kts 45°
2026-05-05 23:30 16.79252 117.58084 34919 ft 510 kts 45°
2026-05-05 23:30 16.84870 117.64465 34917 ft 510 kts 45°
2026-05-05 23:31 16.89669 117.69921 34916 ft 510 kts 45°
2026-05-05 23:31 16.94466 117.75380 34915 ft 510 kts 45°
2026-05-05 23:32 16.99229 117.80804 34915 ft 510 kts 45°
2026-05-05 23:32 17.04022 117.86266 34924 ft 510 kts 45°
2026-05-05 23:33 17.08821 117.91741 34918 ft 511 kts 45°
2026-05-05 23:33 17.13630 117.97230 34918 ft 512 kts 45°
2026-05-05 23:34 17.18432 118.02717 34915 ft 512 kts 45°
2026-05-05 23:34 17.23237 118.08212 34917 ft 512 kts 46°
2026-05-05 23:35 17.28036 118.13704 34919 ft 512 kts 46°
2026-05-05 23:35 17.32842 118.19208 34922 ft 512 kts 45°
2026-05-05 23:36 17.37647 118.24717 34919 ft 513 kts 45°
2026-05-05 23:36 17.42454 118.30231 34920 ft 513 kts 45°
2026-05-05 23:37 17.47260 118.35751 34922 ft 513 kts 45°
2026-05-05 23:37 17.52068 118.41275 34922 ft 513 kts 45°
2026-05-05 23:38 17.56871 118.46801 34928 ft 513 kts 45°
2026-05-05 23:38 17.60899 118.51437 34919 ft 513 kts 45°
2026-05-05 23:39 17.65676 118.56940 34922 ft 514 kts 45°
2026-05-05 23:39 17.70490 118.62490 34922 ft 514 kts 45°
2026-05-05 23:40 17.75295 118.68036 34922 ft 514 kts 45°
2026-05-05 23:40 17.80102 118.73588 34922 ft 514 kts 45°
2026-05-05 23:41 17.84913 118.79150 34925 ft 515 kts 45°
2026-05-05 23:41 17.89732 118.84726 34924 ft 515 kts 45°
2026-05-05 23:42 17.94544 118.90297 34922 ft 515 kts 45°
2026-05-05 23:42 17.99351 118.95869 34922 ft 515 kts 45°
2026-05-05 23:43 18.04162 119.01453 34924 ft 515 kts 45°
2026-05-05 23:43 18.08980 119.07045 34925 ft 516 kts 45°
2026-05-05 23:44 18.13792 119.12637 34922 ft 516 kts 45°
2026-05-05 23:44 18.18608 119.18239 34926 ft 516 kts 45°
2026-05-05 23:45 18.23422 119.23844 34924 ft 516 kts 45°
2026-05-05 23:45 18.28237 119.29454 34925 ft 517 kts 45°
2026-05-05 23:46 18.33054 119.35072 34936 ft 517 kts 45°
2026-05-05 23:46 18.37871 119.40697 34926 ft 517 kts 45°
2026-05-05 23:47 18.42690 119.46328 34925 ft 517 kts 45°
2026-05-05 23:47 18.47508 119.51963 34925 ft 517 kts 45°
2026-05-05 23:48 18.52324 119.57599 34926 ft 518 kts 45°
2026-05-05 23:48 18.57144 119.63246 34926 ft 518 kts 45°
2026-05-05 23:49 18.61967 119.68903 34924 ft 518 kts 45°
2026-05-05 23:49 18.66784 119.74555 34925 ft 519 kts 45°
2026-05-05 23:50 18.71606 119.80222 34928 ft 519 kts 45°
2026-05-05 23:50 18.76423 119.85886 34929 ft 519 kts 45°
2026-05-05 23:51 18.81247 119.91565 34925 ft 519 kts 45°
2026-05-05 23:51 18.86069 119.97247 34928 ft 520 kts 45°
2026-05-05 23:52 18.90893 120.02935 34931 ft 520 kts 45°
2026-05-05 23:52 18.95717 120.08629 34933 ft 520 kts 45°
2026-05-05 23:53 19.00536 120.14322 34930 ft 520 kts 45°
2026-05-05 23:53 19.05359 120.20026 34931 ft 520 kts 45°
2026-05-05 23:54 19.10153 120.25701 34927 ft 521 kts 45°
2026-05-05 23:54 19.14983 120.31423 34946 ft 521 kts 45°
2026-05-05 23:55 19.19809 120.37146 34927 ft 521 kts 45°
2026-05-05 23:55 19.24636 120.42877 34942 ft 522 kts 45°
2026-05-05 23:56 19.29468 120.48618 34928 ft 522 kts 45°
2026-05-05 23:56 19.34298 120.54363 34927 ft 522 kts 45°
2026-05-05 23:57 19.39133 120.60120 34931 ft 522 kts 45°
2026-05-05 23:57 19.43957 120.65872 34930 ft 522 kts 45°
2026-05-05 23:58 19.48783 120.71628 34946 ft 522 kts 45°
2026-05-05 23:58 19.53608 120.77388 34928 ft 522 kts 45°
2026-05-05 23:59 19.58431 120.83152 34938 ft 523 kts 45°
2026-05-05 23:59 19.63259 120.88928 34938 ft 523 kts 45°
2026-05-06 00:00 19.68085 120.94706 34945 ft 523 kts 45°
2026-05-06 00:00 19.72909 121.00489 34946 ft 524 kts 45°
2026-05-06 00:01 19.77739 121.06286 34943 ft 524 kts 45°
2026-05-06 00:01 19.82572 121.12091 34944 ft 525 kts 45°
2026-05-06 00:02 19.87407 121.17905 34946 ft 525 kts 45°
2026-05-06 00:02 19.92243 121.23725 34945 ft 525 kts 45°
2026-05-06 00:03 19.97080 121.29553 34947 ft 526 kts 45°
2026-05-06 00:03 20.01916 121.35385 34947 ft 526 kts 45°
2026-05-06 00:04 20.06758 121.41231 34952 ft 527 kts 45°
2026-05-06 00:04 20.11610 121.47094 34952 ft 528 kts 45°
2026-05-06 00:05 20.18883 121.55895 34951 ft 528 kts 45°
2026-05-06 00:06 20.23729 121.61765 34961 ft 528 kts 45°
2026-05-06 00:06 20.28579 121.67648 34958 ft 529 kts 45°
2026-05-06 00:07 20.33448 121.73558 34957 ft 531 kts 45°
2026-05-06 00:07 20.38314 121.79473 34958 ft 531 kts 45°
2026-05-06 00:08 20.43184 121.85397 34960 ft 531 kts 45°
2026-05-06 00:08 20.48049 121.91322 34974 ft 531 kts 45°
2026-05-06 00:09 20.52918 121.97258 34970 ft 533 kts 45°
2026-05-06 00:09 20.57804 122.03220 34970 ft 533 kts 45°
2026-05-06 00:10 20.62650 122.09141 34965 ft 533 kts 45°
2026-05-06 00:10 20.67535 122.15116 34972 ft 534 kts 45°
2026-05-06 00:11 20.72416 122.21092 34979 ft 534 kts 45°
2026-05-06 00:11 20.77307 122.27085 34976 ft 535 kts 45°
2026-05-06 00:12 20.82202 122.33092 34976 ft 536 kts 45°
2026-05-06 00:12 20.87095 122.39101 34973 ft 536 kts 45°
2026-05-06 00:13 20.91985 122.45115 34969 ft 535 kts 45°
2026-05-06 00:13 20.96874 122.51133 34972 ft 537 kts 45°
2026-05-06 00:14 21.02314 122.56486 34977 ft 527 kts 30°
2026-05-06 00:14 21.08379 122.60894 34973 ft 526 kts 28°
2026-05-06 00:15 21.14525 122.65140 34982 ft 526 kts 28°
2026-05-06 00:15 21.20688 122.69389 34986 ft 527 kts 27°
2026-05-06 00:16 21.26857 122.73672 34985 ft 529 kts 28°
2026-05-06 00:16 21.33027 122.77975 34978 ft 529 kts 28°
2026-05-06 00:17 21.39192 122.82283 34984 ft 529 kts 28°
2026-05-06 00:17 21.45356 122.86593 34980 ft 529 kts 27°
2026-05-06 00:18 21.51536 122.90916 34981 ft 530 kts 28°
2026-05-06 00:18 21.57724 122.95249 34982 ft 532 kts 28°
2026-05-06 00:19 21.63916 122.99592 34985 ft 532 kts 28°
2026-05-06 00:19 21.70111 123.03941 34986 ft 532 kts 28°
2026-05-06 00:20 21.76304 123.08292 34986 ft 532 kts 28°
2026-05-06 00:20 21.81451 123.11913 34985 ft 532 kts 28°
2026-05-06 00:21 21.87639 123.16269 34984 ft 532 kts 28°
2026-05-06 00:21 21.93836 123.20635 34988 ft 533 kts 28°
2026-05-06 00:22 22.00048 123.25017 34990 ft 534 kts 28°
2026-05-06 00:22 22.06266 123.29409 34988 ft 534 kts 28°
2026-05-06 00:23 22.12476 123.33800 34992 ft 534 kts 28°
2026-05-06 00:23 22.18685 123.38195 34989 ft 534 kts 28°
2026-05-06 00:24 22.24894 123.42594 34993 ft 534 kts 28°
2026-05-06 00:24 22.31106 123.47000 34991 ft 534 kts 28°
2026-05-06 00:25 22.37312 123.51406 35004 ft 534 kts 28°
2026-05-06 00:25 22.43481 123.55791 34993 ft 534 kts 28°
2026-05-06 00:26 22.49685 123.60206 34994 ft 534 kts 28°
2026-05-06 00:26 22.55888 123.64624 34993 ft 534 kts 28°
2026-05-06 00:27 22.62087 123.69044 34985 ft 534 kts 28°
2026-05-06 00:27 22.68339 123.73507 34990 ft 535 kts 28°
2026-05-06 00:28 22.74554 123.77949 34993 ft 535 kts 28°
2026-05-06 00:28 22.80773 123.82401 34993 ft 535 kts 28°
2026-05-06 00:29 22.86985 123.86854 34995 ft 536 kts 28°
2026-05-06 00:29 22.93168 123.91285 34994 ft 536 kts 28°
2026-05-06 00:30 22.99386 123.95747 34985 ft 536 kts 28°
2026-05-06 00:30 23.05590 124.00248 35013 ft 537 kts 30°
2026-05-06 00:31 23.11766 124.04822 34992 ft 538 kts 30°
2026-05-06 00:31 23.17941 124.09403 34989 ft 537 kts 30°
2026-05-06 00:32 23.24126 124.13982 34996 ft 537 kts 30°
2026-05-06 00:32 23.30305 124.18553 35000 ft 537 kts 30°
2026-05-06 00:33 23.36182 124.23614 34991 ft 544 kts 43°
2026-05-06 00:33 23.41327 124.29699 34994 ft 547 kts 45°
2026-05-06 00:34 23.46329 124.35947 34993 ft 548 kts 46°
2026-05-06 00:34 23.51320 124.42221 35001 ft 548 kts 46°
2026-05-06 00:35 23.56327 124.48489 34984 ft 548 kts 46°
2026-05-06 00:35 23.61345 124.54758 34992 ft 549 kts 46°
2026-05-06 00:36 23.66367 124.61035 34993 ft 549 kts 46°
2026-05-06 00:36 23.71388 124.67320 34991 ft 549 kts 46°
2026-05-06 00:37 23.76411 124.73616 34990 ft 550 kts 46°
2026-05-06 00:37 23.81470 124.79967 34993 ft 551 kts 46°
2026-05-06 00:38 23.86469 124.86250 34994 ft 551 kts 46°
2026-05-06 00:38 23.91529 124.92619 34994 ft 551 kts 46°
2026-05-06 00:39 23.96517 124.98903 34993 ft 551 kts 46°
2026-05-06 00:39 24.01540 125.05241 34988 ft 550 kts 46°
2026-05-06 00:40 24.06547 125.11566 34991 ft 550 kts 46°
2026-05-06 00:40 24.11554 125.17899 34994 ft 549 kts 47°
2026-05-06 00:41 24.16551 125.24230 34995 ft 549 kts 47°
2026-05-06 00:41 24.21546 125.30565 34993 ft 549 kts 47°
2026-05-06 00:42 24.26535 125.36901 34994 ft 549 kts 47°
2026-05-06 00:42 24.31522 125.43242 34994 ft 548 kts 47°
2026-05-06 00:43 24.36490 125.49569 34991 ft 547 kts 47°
2026-05-06 00:43 24.41455 125.55899 34993 ft 547 kts 47°
2026-05-06 00:44 24.46413 125.62229 34993 ft 547 kts 47°
2026-05-06 00:44 24.51368 125.68562 34982 ft 546 kts 47°
2026-05-06 00:45 24.56308 125.74886 35000 ft 545 kts 47°
2026-05-06 00:45 24.61280 125.81258 34995 ft 546 kts 47°
2026-05-06 00:46 24.66188 125.87557 34999 ft 546 kts 47°
2026-05-06 00:46 24.71153 125.93938 34992 ft 546 kts 48°
2026-05-06 00:47 24.76060 126.00253 35009 ft 546 kts 48°
2026-05-06 00:47 24.80988 126.06603 35009 ft 546 kts 48°
2026-05-06 00:48 24.85950 126.13005 35011 ft 546 kts 48°
2026-05-06 00:48 24.90845 126.19329 34998 ft 546 kts 48°
2026-05-06 00:49 24.95773 126.25705 34985 ft 546 kts 49°
2026-05-06 00:49 25.00694 126.32080 35000 ft 546 kts 49°
2026-05-06 00:50 25.05618 126.38466 35011 ft 546 kts 49°
2026-05-06 00:50 25.10541 126.44861 35003 ft 546 kts 49°
2026-05-06 00:51 25.15457 126.51254 34987 ft 546 kts 49°
2026-05-06 00:51 25.20378 126.57666 35000 ft 547 kts 49°
2026-05-06 00:52 25.25301 126.64088 35004 ft 548 kts 49°
2026-05-06 00:52 25.30223 126.70518 35004 ft 548 kts 49°
2026-05-06 00:53 25.35146 126.76959 34999 ft 548 kts 49°
2026-05-06 00:53 25.40061 126.83396 35002 ft 548 kts 49°
2026-05-06 00:54 25.44983 126.89851 35004 ft 548 kts 49°
2026-05-06 00:54 25.49894 126.96301 35007 ft 548 kts 49°
2026-05-06 00:55 25.54805 127.02762 35008 ft 549 kts 49°
2026-05-06 00:55 25.59719 127.09234 35013 ft 549 kts 50°
2026-05-06 00:56 25.64716 127.15623 35008 ft 548 kts 47°
2026-05-06 00:56 25.69806 127.21906 35006 ft 548 kts 47°
2026-05-06 00:57 25.74888 127.28204 35011 ft 549 kts 47°
2026-05-06 00:57 25.79959 127.34540 35007 ft 549 kts 47°
2026-05-06 00:58 25.85018 127.40887 35007 ft 549 kts 47°
2026-05-06 00:58 25.90077 127.47245 35009 ft 549 kts 47°
2026-05-06 00:59 25.95139 127.53616 35018 ft 550 kts 47°
2026-05-06 00:59 26.00201 127.59993 35014 ft 550 kts 47°
2026-05-06 01:00 26.05256 127.66370 34999 ft 550 kts 47°
2026-05-06 01:00 26.10313 127.72760 34990 ft 550 kts 47°
2026-05-06 01:01 26.15402 127.79113 35032 ft 549 kts 43°
2026-05-06 01:01 26.20103 127.83822 35046 ft 546 kts 39°
2026-05-06 01:02 26.25910 127.89287 35041 ft 546 kts 38°
2026-05-06 01:02 26.31744 127.94702 35046 ft 546 kts 38°
2026-05-06 01:03 26.37583 128.00143 35026 ft 547 kts 38°
2026-05-06 01:03 26.43412 128.05597 35023 ft 547 kts 38°
2026-05-06 01:04 26.49236 128.11059 35031 ft 547 kts 38°
2026-05-06 01:04 26.55059 128.16530 35006 ft 547 kts 38°
2026-05-06 01:05 26.60876 128.22002 35006 ft 547 kts 38°
2026-05-06 01:05 26.66690 128.27477 35015 ft 547 kts 38°
2026-05-06 01:06 26.73003 128.33430 35016 ft 549 kts 38°
2026-05-06 01:06 26.78843 128.38946 35020 ft 550 kts 38°
2026-05-06 01:07 26.84681 128.44468 35018 ft 550 kts 38°
2026-05-06 01:07 26.90508 128.49987 35025 ft 546 kts 38°
2026-05-06 01:08 26.96294 128.55476 35026 ft 544 kts 38°
2026-05-06 01:08 27.02069 128.60960 35029 ft 544 kts 38°
2026-05-06 01:09 27.07849 128.66457 35013 ft 547 kts 38°
2026-05-06 01:09 27.13665 128.71998 35034 ft 548 kts 38°
2026-05-06 01:10 27.19469 128.77534 35035 ft 547 kts 38°
2026-05-06 01:10 27.25285 128.83088 35061 ft 550 kts 39°
2026-05-06 01:11 27.31195 128.88737 35032 ft 561 kts 40°
2026-05-06 01:11 27.37118 128.94422 35034 ft 559 kts 39°
2026-05-06 01:12 27.43035 129.00095 35048 ft 559 kts 40°
2026-05-06 01:12 27.48963 129.05786 35040 ft 561 kts 40°
2026-05-06 01:13 27.54585 129.11876 35052 ft 562 kts 49°
2026-05-06 01:13 27.59661 129.18560 35028 ft 559 kts 50°
2026-05-06 01:14 27.67068 129.28693 35040 ft 558 kts 51°
2026-05-06 01:14 27.72000 129.35457 35043 ft 558 kts 50°
2026-05-06 01:15 27.76925 129.42194 35045 ft 555 kts 51°
2026-05-06 01:15 27.81829 129.48901 35044 ft 553 kts 51°
2026-05-06 01:16 27.86726 129.55608 35054 ft 553 kts 51°
2026-05-06 01:16 27.91617 129.62320 35053 ft 553 kts 51°
2026-05-06 01:17 27.96508 129.69042 35052 ft 553 kts 51°
2026-05-06 01:17 28.01395 129.75771 35045 ft 553 kts 51°
2026-05-06 01:18 28.06281 129.82508 35057 ft 554 kts 51°
2026-05-06 01:18 28.11164 129.89262 35043 ft 552 kts 51°
2026-05-06 01:19 28.16040 129.96003 35071 ft 554 kts 51°
2026-05-06 01:19 28.20924 130.02764 35076 ft 555 kts 51°
2026-05-06 01:20 28.25781 130.09500 35062 ft 554 kts 51°
2026-05-06 01:20 28.30684 130.16270 35058 ft 555 kts 51°
2026-05-06 01:21 28.35572 130.23061 35079 ft 557 kts 52°
2026-05-06 01:21 28.40461 130.29902 35059 ft 557 kts 52°
2026-05-06 01:22 28.44561 130.35603 35044 ft 554 kts 51°
2026-05-06 01:22 28.49414 130.42405 35054 ft 554 kts 52°
2026-05-06 01:23 28.54236 130.49192 35046 ft 556 kts 52°
2026-05-06 01:23 28.59124 130.56062 35060 ft 554 kts 52°
2026-05-06 01:24 28.63972 130.62875 35056 ft 553 kts 52°
2026-05-06 01:24 28.68824 130.69702 35057 ft 556 kts 52°
2026-05-06 01:25 28.73700 130.76571 35061 ft 557 kts 52°
2026-05-06 01:25 28.78565 130.83431 35061 ft 558 kts 53°
2026-05-06 01:26 28.83392 130.90302 35069 ft 561 kts 53°
2026-05-06 01:26 28.88288 130.97230 35060 ft 558 kts 52°
2026-05-06 01:27 28.93144 131.04107 35062 ft 555 kts 52°
2026-05-06 01:27 28.97997 131.11002 35068 ft 560 kts 53°
2026-05-06 01:28 29.02892 131.17976 35057 ft 562 kts 53°
2026-05-06 01:28 29.07767 131.24928 35065 ft 559 kts 53°
2026-05-06 01:29 29.12629 131.31874 35067 ft 559 kts 53°
2026-05-06 01:29 29.17482 131.38818 35068 ft 560 kts 53°
2026-05-06 01:30 29.22351 131.45798 35065 ft 561 kts 53°
2026-05-06 01:30 29.27218 131.52789 35064 ft 563 kts 53°
2026-05-06 01:31 29.32099 131.59809 35075 ft 564 kts 52°
2026-05-06 01:31 29.36989 131.66846 35084 ft 564 kts 52°
2026-05-06 01:32 29.41885 131.73919 35065 ft 568 kts 53°
2026-05-06 01:32 29.46803 131.81036 35064 ft 570 kts 52°
2026-05-06 01:33 29.51728 131.88169 35081 ft 570 kts 52°
2026-05-06 01:33 29.56658 131.95335 35086 ft 573 kts 51°
2026-05-06 01:34 29.59132 131.98906 34957 ft 568 kts 52°
2026-05-06 01:34 29.61580 132.02451 35046 ft 567 kts 51°
2026-05-06 01:34 29.66456 132.09551 35075 ft 565 kts 52°
2026-05-06 01:35 29.71441 132.16608 35069 ft 571 kts 51°
2026-05-06 01:35 29.76522 132.23674 35069 ft 572 kts 50°
2026-05-06 01:36 29.81560 132.30714 35078 ft 570 kts 50°
2026-05-06 01:36 29.86598 132.37801 35077 ft 573 kts 50°
2026-05-06 01:37 29.91635 132.44910 35075 ft 572 kts 50°
2026-05-06 01:37 29.96667 132.52024 35077 ft 573 kts 50°
2026-05-06 01:38 30.01713 132.59168 35097 ft 574 kts 50°
2026-05-06 01:38 30.06746 132.66288 35109 ft 574 kts 50°
2026-05-06 01:39 30.11808 132.73490 35087 ft 579 kts 50°
2026-05-06 01:39 30.16881 132.80719 35094 ft 579 kts 50°
2026-05-06 01:40 30.21948 132.87946 35099 ft 580 kts 50°
2026-05-06 01:40 30.27026 132.95201 35102 ft 581 kts 51°
2026-05-06 01:41 30.32107 133.02472 35095 ft 581 kts 50°
2026-05-06 01:41 30.37192 133.09764 35105 ft 582 kts 50°
2026-05-06 01:42 30.42279 133.17070 35104 ft 582 kts 50°
2026-05-06 01:42 30.47360 133.24382 35095 ft 582 kts 50°
2026-05-06 01:43 30.52443 133.31712 35105 ft 583 kts 51°
2026-05-06 01:43 30.57523 133.39049 35107 ft 583 kts 51°
2026-05-06 01:44 30.62602 133.46399 35106 ft 584 kts 51°
2026-05-06 01:44 30.67685 133.53769 35108 ft 586 kts 51°
2026-05-06 01:45 30.72774 133.61162 35117 ft 585 kts 51°
2026-05-06 01:45 30.77840 133.68536 35117 ft 584 kts 51°
2026-05-06 01:46 30.82918 133.75943 35118 ft 587 kts 51°
2026-05-06 01:46 30.87986 133.83347 35114 ft 581 kts 51°
2026-05-06 01:47 30.93029 133.90714 35122 ft 583 kts 51°
2026-05-06 01:47 30.98087 133.98120 35111 ft 584 kts 51°
2026-05-06 01:48 31.03123 134.05513 35130 ft 582 kts 51°
2026-05-06 01:48 31.08177 134.12948 35132 ft 586 kts 51°
2026-05-06 01:49 31.13230 134.20397 35138 ft 584 kts 51°
2026-05-06 01:49 31.18195 134.27726 35136 ft 585 kts 51°
2026-05-06 01:50 31.23243 134.35194 35143 ft 585 kts 51°
2026-05-06 01:50 31.28277 134.42657 35125 ft 584 kts 51°
2026-05-06 01:51 31.33319 134.50144 35158 ft 587 kts 51°
2026-05-06 01:51 31.38363 134.57649 35145 ft 586 kts 51°
2026-05-06 01:52 31.43362 134.65102 35141 ft 587 kts 51°
2026-05-06 01:52 31.48401 134.72629 35160 ft 586 kts 51°
2026-05-06 01:53 31.53421 134.80141 35151 ft 585 kts 51°
2026-05-06 01:53 31.58436 134.87663 35163 ft 585 kts 51°
2026-05-06 01:54 31.63447 134.95191 35159 ft 585 kts 51°
2026-05-06 01:54 31.68448 135.02726 35152 ft 585 kts 51°
2026-05-06 01:55 31.73463 135.10233 35151 ft 583 kts 49°
2026-05-06 01:55 31.78859 135.17336 35152 ft 582 kts 45°
2026-05-06 01:56 31.84396 135.24288 35161 ft 582 kts 45°
2026-05-06 01:56 31.89877 135.31306 35157 ft 583 kts 46°
2026-05-06 01:57 31.95306 135.38392 35155 ft 583 kts 46°
2026-05-06 01:57 32.00718 135.45502 35158 ft 583 kts 46°
2026-05-06 01:58 32.06121 135.52611 35169 ft 583 kts 46°
2026-05-06 01:58 32.11532 135.59738 35173 ft 583 kts 46°
2026-05-06 01:59 32.16936 135.66863 35168 ft 583 kts 46°
2026-05-06 01:59 32.22339 135.74002 35184 ft 583 kts 46°
2026-05-06 02:00 32.27740 135.81154 35174 ft 584 kts 46°
2026-05-06 02:00 32.33150 135.88328 35176 ft 585 kts 46°
2026-05-06 02:01 32.38556 135.95513 35171 ft 585 kts 46°
2026-05-06 02:01 32.43712 136.02960 35181 ft 587 kts 54°
2026-05-06 02:02 32.48233 136.11009 35178 ft 588 kts 56°
2026-05-06 02:02 32.52631 136.19175 35185 ft 588 kts 56°
2026-05-06 02:03 32.57016 136.27371 35182 ft 589 kts 56°
2026-05-06 02:03 32.61414 136.35574 35180 ft 589 kts 56°
2026-05-06 02:04 32.65817 136.43777 35182 ft 589 kts 56°
2026-05-06 02:04 32.70214 136.51982 35182 ft 589 kts 56°
2026-05-06 02:05 32.74605 136.60196 35186 ft 589 kts 56°
2026-05-06 02:05 32.78991 136.68420 35191 ft 589 kts 56°
2026-05-06 02:06 32.82632 136.75262 35193 ft 589 kts 56°
2026-05-06 02:06 32.87003 136.83493 35187 ft 588 kts 56°
2026-05-06 02:07 32.91366 136.91725 35207 ft 588 kts 56°
2026-05-06 02:07 32.95720 136.99959 35188 ft 588 kts 56°
2026-05-06 02:08 33.00069 137.08201 35203 ft 587 kts 56°
2026-05-06 02:08 33.04405 137.16436 35198 ft 586 kts 56°
2026-05-06 02:09 33.08730 137.24673 35202 ft 586 kts 56°
2026-05-06 02:09 33.13048 137.32913 35203 ft 586 kts 56°
2026-05-06 02:10 33.17362 137.41163 35210 ft 586 kts 57°
2026-05-06 02:10 33.21673 137.49429 35206 ft 587 kts 57°
2026-05-06 02:11 33.25988 137.57708 35207 ft 587 kts 57°
2026-05-06 02:11 33.30297 137.65990 35211 ft 587 kts 57°
2026-05-06 02:12 33.34600 137.74285 35216 ft 587 kts 57°
2026-05-06 02:12 33.38901 137.82596 35216 ft 587 kts 57°
2026-05-06 02:13 33.43190 137.90903 35217 ft 586 kts 57°
2026-05-06 02:13 33.47465 137.99212 35217 ft 586 kts 57°
2026-05-06 02:14 33.51741 138.07524 35215 ft 585 kts 57°
2026-05-06 02:14 33.55999 138.15831 35220 ft 585 kts 57°
2026-05-06 02:15 33.60259 138.24150 35224 ft 585 kts 57°
2026-05-06 02:15 33.64511 138.32468 35223 ft 585 kts 57°
2026-05-06 02:16 33.68756 138.40795 35225 ft 585 kts 57°
2026-05-06 02:16 33.72997 138.49138 35222 ft 585 kts 57°
2026-05-06 02:17 33.77229 138.57475 35222 ft 584 kts 57°
2026-05-06 02:17 33.81457 138.65829 35228 ft 584 kts 57°
2026-05-06 02:18 33.85674 138.74184 35226 ft 585 kts 57°
2026-05-06 02:18 33.89891 138.82554 35228 ft 585 kts 57°
2026-05-06 02:19 33.94101 138.90930 35227 ft 585 kts 57°
2026-05-06 02:19 33.98307 138.99317 35224 ft 585 kts 57°
2026-05-06 02:20 34.04604 139.11914 35219 ft 586 kts 57°
2026-05-06 02:21 34.08803 139.20335 35223 ft 586 kts 57°
2026-05-06 02:21 34.12995 139.28762 35224 ft 586 kts 57°
2026-05-06 02:22 34.17180 139.37206 35227 ft 586 kts 57°
2026-05-06 02:22 34.21337 139.45594 35227 ft 586 kts 57°
2026-05-06 02:23 34.25542 139.54101 35230 ft 586 kts 57°
2026-05-06 02:23 34.29691 139.62518 35230 ft 586 kts 57°
2026-05-06 02:24 34.33858 139.70993 35233 ft 586 kts 57°
2026-05-06 02:24 34.38018 139.79475 35235 ft 586 kts 57°
2026-05-06 02:25 34.42169 139.87960 35233 ft 585 kts 57°
2026-05-06 02:25 34.46315 139.96454 35233 ft 585 kts 57°
2026-05-06 02:26 34.50456 140.04957 35231 ft 586 kts 57°
2026-05-06 02:26 34.54589 140.13465 35229 ft 586 kts 57°
2026-05-06 02:27 34.58718 140.21985 35234 ft 586 kts 57°
2026-05-06 02:27 34.62841 140.30514 35235 ft 586 kts 57°
2026-05-06 02:28 34.66955 140.39045 35238 ft 586 kts 57°
2026-05-06 02:28 34.71066 140.47602 35238 ft 586 kts 57°
2026-05-06 02:29 34.75060 140.56233 35241 ft 586 kts 59°
2026-05-06 02:29 34.79007 140.64916 35250 ft 586 kts 59°
2026-05-06 02:30 34.82960 140.73592 35243 ft 586 kts 58°
2026-05-06 02:30 34.86924 140.82269 35243 ft 586 kts 58°
2026-05-06 02:31 34.90888 140.90955 35243 ft 586 kts 58°
2026-05-06 02:31 34.94838 140.99633 35243 ft 585 kts 58°
2026-05-06 02:32 34.98777 141.08311 35249 ft 585 kts 58°
2026-05-06 02:32 35.02707 141.16993 35249 ft 585 kts 58°
2026-05-06 02:33 35.06633 141.25688 35249 ft 585 kts 58°
2026-05-06 02:33 35.07934 141.28573 35267 ft 585 kts 59°
2026-05-06 02:34 35.14485 141.43145 35252 ft 589 kts 58°
2026-05-06 02:34 35.18422 141.51929 35253 ft 589 kts 59°
2026-05-06 02:35 35.22353 141.60726 35256 ft 589 kts 59°
2026-05-06 02:35 35.26279 141.69533 35256 ft 589 kts 59°
2026-05-06 02:36 35.30199 141.78350 35245 ft 589 kts 59°
2026-05-06 02:36 35.34113 141.87177 35262 ft 590 kts 59°
2026-05-06 02:37 35.38027 141.96025 35262 ft 591 kts 59°
2026-05-06 02:37 35.41936 142.04886 35246 ft 591 kts 59°
2026-05-06 02:38 35.45841 142.13762 35264 ft 591 kts 59°
2026-05-06 02:38 35.49741 142.22650 35264 ft 591 kts 59°
2026-05-06 02:39 35.53627 142.31529 35253 ft 591 kts 58°
2026-05-06 02:39 35.57514 142.40434 35256 ft 591 kts 59°
2026-05-06 02:40 35.61390 142.49338 35276 ft 591 kts 59°
2026-05-06 02:40 35.65268 142.58269 35268 ft 592 kts 59°
2026-05-06 02:41 35.69138 142.67206 35267 ft 592 kts 59°
2026-05-06 02:41 35.73003 142.76155 35267 ft 592 kts 59°
2026-05-06 02:42 35.76866 142.85124 35269 ft 593 kts 59°
2026-05-06 02:42 35.80732 142.94123 35274 ft 594 kts 59°
2026-05-06 02:43 35.84587 143.03124 35277 ft 594 kts 59°
2026-05-06 02:43 35.88443 143.12148 35276 ft 595 kts 59°
2026-05-06 02:44 35.92592 143.20922 35274 ft 587 kts 46°
2026-05-06 02:44 35.95313 143.24605 35274 ft 575 kts 34°
2026-05-06 02:44 35.98355 143.27759 35278 ft 570 kts 30°
2026-05-06 02:45 36.04658 143.33680 35285 ft 568 kts 27°
2026-05-06 02:45 36.09977 143.38483 35278 ft 571 kts 27°
2026-05-06 02:46 36.16390 143.44304 35275 ft 572 kts 27°
2026-05-06 02:46 36.22786 143.50183 35288 ft 573 kts 27°
2026-05-06 02:47 36.29171 143.56091 35276 ft 573 kts 27°
2026-05-06 02:47 36.35550 143.62003 35280 ft 573 kts 27°
2026-05-06 02:48 36.41945 143.67938 35277 ft 574 kts 27°
2026-05-06 02:48 36.48345 143.73891 35277 ft 574 kts 27°
2026-05-06 02:49 36.54729 143.79844 35278 ft 574 kts 27°
2026-05-06 02:49 36.61114 143.85808 35315 ft 574 kts 27°
2026-05-06 02:50 36.67489 143.91776 35271 ft 573 kts 27°
2026-05-06 02:50 36.73859 143.97751 35271 ft 573 kts 27°
2026-05-06 02:51 36.80180 144.03693 35271 ft 573 kts 27°
2026-05-06 02:51 36.86549 144.09692 35270 ft 573 kts 27°
2026-05-06 02:52 36.92910 144.15697 35281 ft 573 kts 27°
2026-05-06 02:52 36.99264 144.21710 35268 ft 572 kts 27°
2026-05-06 02:53 37.05607 144.27724 35277 ft 572 kts 27°
2026-05-06 02:53 37.11942 144.33754 35273 ft 571 kts 27°
2026-05-06 02:54 37.18265 144.39791 35273 ft 571 kts 27°
2026-05-06 02:54 37.24587 144.45840 35276 ft 571 kts 27°
2026-05-06 02:55 37.30901 144.51893 35270 ft 570 kts 27°
2026-05-06 02:55 37.37205 144.57948 35272 ft 570 kts 27°
2026-05-06 02:56 37.43496 144.64001 35270 ft 570 kts 27°
2026-05-06 02:56 37.49790 144.70072 35275 ft 570 kts 27°
2026-05-06 02:57 37.56083 144.76156 35281 ft 570 kts 27°
2026-05-06 02:57 37.62317 144.82198 35277 ft 568 kts 27°
2026-05-06 02:58 37.68582 144.88281 35275 ft 568 kts 27°
2026-05-06 02:58 37.74851 144.94379 35272 ft 568 kts 27°
2026-05-06 02:59 37.81113 145.00486 35284 ft 568 kts 27°
2026-05-06 02:59 37.87348 145.06581 35276 ft 565 kts 28°
2026-05-06 03:00 37.93566 145.12674 35273 ft 565 kts 28°
2026-05-06 03:00 37.99778 145.18769 35280 ft 565 kts 28°
2026-05-06 03:01 38.05991 145.24881 35275 ft 565 kts 28°
2026-05-06 03:01 38.12201 145.31004 35276 ft 565 kts 29°
2026-05-06 03:02 38.18421 145.37148 35278 ft 567 kts 29°
2026-05-06 03:02 38.24646 145.43313 35275 ft 567 kts 29°
2026-05-06 03:03 38.30868 145.49491 35276 ft 567 kts 29°
2026-05-06 03:03 38.37017 145.55826 35295 ft 572 kts 34°
2026-05-06 03:04 38.42837 145.62790 35264 ft 576 kts 37°
2026-05-06 03:04 38.48613 145.69870 35267 ft 576 kts 37°
2026-05-06 03:05 38.54442 145.76874 35271 ft 575 kts 36°
2026-05-06 03:05 38.60311 145.83836 35270 ft 576 kts 36°
2026-05-06 03:06 38.66187 145.90805 35266 ft 576 kts 36°
2026-05-06 03:06 38.72059 145.97796 35271 ft 576 kts 36°
2026-05-06 03:07 38.77917 146.04794 35280 ft 575 kts 36°
2026-05-06 03:07 38.83774 146.11804 35268 ft 576 kts 37°
2026-05-06 03:08 38.89635 146.18838 35263 ft 576 kts 37°
2026-05-06 03:08 38.95486 146.25876 35262 ft 576 kts 37°
2026-05-06 03:09 39.01341 146.32935 35299 ft 577 kts 37°
2026-05-06 03:09 39.07141 146.39946 35264 ft 575 kts 37°
2026-05-06 03:10 39.12953 146.46988 35265 ft 574 kts 37°
2026-05-06 03:10 39.18799 146.54086 35262 ft 574 kts 37°
2026-05-06 03:11 39.24610 146.61157 35265 ft 574 kts 37°
2026-05-06 03:11 39.30411 146.68235 35255 ft 574 kts 37°
2026-05-06 03:12 39.36172 146.75282 35259 ft 573 kts 38°
2026-05-06 03:12 39.41939 146.82356 35257 ft 571 kts 38°
2026-05-06 03:13 39.47694 146.89427 35257 ft 571 kts 38°
2026-05-06 03:13 39.53448 146.96513 35257 ft 571 kts 38°
2026-05-06 03:14 39.59201 147.03617 35261 ft 571 kts 38°
2026-05-06 03:14 39.64952 147.10735 35264 ft 571 kts 38°
2026-05-06 03:15 39.70680 147.17846 35255 ft 568 kts 38°
2026-05-06 03:15 39.76387 147.24945 35250 ft 567 kts 38°
2026-05-06 03:16 39.82088 147.32050 35250 ft 568 kts 38°
2026-05-06 03:16 39.87789 147.39174 35254 ft 567 kts 38°
2026-05-06 03:17 39.93457 147.46280 35244 ft 564 kts 38°
2026-05-06 03:17 39.99106 147.53375 35244 ft 562 kts 39°
2026-05-06 03:18 40.04716 147.60439 35240 ft 560 kts 39°
2026-05-06 03:18 40.10318 147.67505 35229 ft 560 kts 39°
2026-05-06 03:19 40.15906 147.74573 35237 ft 559 kts 39°
2026-05-06 03:19 40.21491 147.81655 35227 ft 559 kts 39°
2026-05-06 03:20 40.29862 147.92301 35233 ft 558 kts 39°
2026-05-06 03:20 40.35409 147.99382 35228 ft 555 kts 39°
2026-05-06 03:21 40.40936 148.06449 35228 ft 555 kts 39°
2026-05-06 03:21 40.46458 148.13527 35228 ft 554 kts 39°
2026-05-06 03:22 40.51966 148.20607 35220 ft 554 kts 39°
2026-05-06 03:22 40.57466 148.27691 35222 ft 553 kts 39°
2026-05-06 03:23 40.62961 148.34787 35223 ft 553 kts 39°
2026-05-06 03:23 40.68443 148.41884 35219 ft 552 kts 39°
2026-05-06 03:24 40.73923 148.48995 35217 ft 553 kts 40°
2026-05-06 03:24 40.79384 148.56099 35213 ft 550 kts 40°
2026-05-06 03:25 40.84821 148.63191 35213 ft 549 kts 40°
2026-05-06 03:25 40.90259 148.70297 35214 ft 549 kts 40°
2026-05-06 03:26 40.95675 148.77396 35203 ft 546 kts 40°
2026-05-06 03:26 41.01066 148.84478 35203 ft 546 kts 40°
2026-05-06 03:27 41.06448 148.91564 35200 ft 546 kts 40°
2026-05-06 03:27 41.10918 148.97464 35200 ft 546 kts 40°
2026-05-06 03:28 41.16295 149.04581 35194 ft 546 kts 40°
2026-05-06 03:28 41.21667 149.11711 35210 ft 545 kts 41°
2026-05-06 03:29 41.27004 149.18813 35190 ft 541 kts 41°
2026-05-06 03:29 41.32318 149.25900 35189 ft 541 kts 41°
2026-05-06 03:30 41.37628 149.32997 35190 ft 540 kts 41°
2026-05-06 03:30 41.42915 149.40082 35184 ft 539 kts 41°
2026-05-06 03:31 41.48191 149.47170 35184 ft 538 kts 41°
2026-05-06 03:31 41.53459 149.54264 35189 ft 538 kts 41°
2026-05-06 03:32 41.58742 149.61399 35179 ft 536 kts 41°
2026-05-06 03:32 41.63943 149.68439 35182 ft 535 kts 41°
2026-05-06 03:33 41.69166 149.75526 35173 ft 534 kts 41°
2026-05-06 03:33 41.74371 149.82606 35173 ft 533 kts 41°
2026-05-06 03:34 41.79567 149.89690 35168 ft 533 kts 41°
2026-05-06 03:34 41.84759 149.96785 35174 ft 532 kts 41°
2026-05-06 03:35 41.89932 150.03873 35165 ft 531 kts 41°
2026-05-06 03:35 41.95101 150.10973 35157 ft 531 kts 42°
2026-05-06 03:36 42.00264 150.18082 35159 ft 531 kts 41°
2026-05-06 03:36 42.05417 150.25193 35148 ft 531 kts 41°
2026-05-06 03:37 42.10571 150.32324 35148 ft 531 kts 42°
2026-05-06 03:37 42.15717 150.39464 35154 ft 531 kts 41°
2026-05-06 03:38 42.20861 150.46617 35146 ft 531 kts 41°
2026-05-06 03:38 42.26005 150.53788 35141 ft 531 kts 41°
2026-05-06 03:39 42.31146 150.60974 35139 ft 532 kts 41°
2026-05-06 03:39 42.36281 150.68169 35126 ft 532 kts 41°
2026-05-06 03:40 42.41418 150.75383 35132 ft 532 kts 41°
2026-05-06 03:40 42.46542 150.82599 35133 ft 532 kts 41°
2026-05-06 03:41 42.51634 150.89787 35132 ft 532 kts 41°
2026-05-06 03:41 42.56754 150.97033 35116 ft 532 kts 41°
2026-05-06 03:42 42.61877 151.04302 35116 ft 532 kts 41°
2026-05-06 03:42 42.66994 151.11581 35113 ft 532 kts 41°
2026-05-06 03:43 42.72116 151.18886 35102 ft 532 kts 41°
2026-05-06 03:43 42.77222 151.26186 35106 ft 533 kts 41°
2026-05-06 03:44 42.82328 151.33505 35105 ft 533 kts 41°
2026-05-06 03:44 42.87437 151.40846 35099 ft 534 kts 41°
2026-05-06 03:45 42.92548 151.48210 35114 ft 535 kts 41°
2026-05-06 03:45 42.97668 151.55606 35088 ft 536 kts 41°
2026-05-06 03:46 43.02786 151.63019 35089 ft 536 kts 41°
2026-05-06 03:46 43.07899 151.70444 35087 ft 536 kts 41°
2026-05-06 03:47 43.13007 151.77882 35081 ft 536 kts 41°
2026-05-06 03:47 43.18114 151.85336 35085 ft 536 kts 41°
2026-05-06 03:48 43.23218 151.92806 35068 ft 537 kts 41°
2026-05-06 03:48 43.28315 152.00286 35069 ft 537 kts 41°
2026-05-06 03:49 43.33413 152.07786 35069 ft 537 kts 41°
2026-05-06 03:49 43.38507 152.15299 35061 ft 537 kts 41°
2026-05-06 03:50 43.43592 152.22820 35062 ft 537 kts 41°
2026-05-06 03:50 43.48672 152.30354 35058 ft 537 kts 41°
2026-05-06 03:51 43.53750 152.37904 35054 ft 537 kts 41°
2026-05-06 03:51 43.58790 152.45418 35058 ft 537 kts 41°
2026-05-06 03:52 43.63856 152.52992 35050 ft 537 kts 41°
2026-05-06 03:52 43.68913 152.60571 35051 ft 537 kts 41°
2026-05-06 03:53 43.73968 152.68167 35060 ft 537 kts 41°
2026-05-06 03:53 43.79018 152.75777 35043 ft 537 kts 41°
2026-05-06 03:54 43.84065 152.83403 35040 ft 537 kts 41°
2026-05-06 03:54 43.89105 152.91038 35040 ft 537 kts 41°
2026-05-06 03:55 43.94147 152.98698 35034 ft 537 kts 41°
2026-05-06 03:55 43.99184 153.06371 35029 ft 537 kts 41°
2026-05-06 03:56 44.04215 153.14056 35034 ft 537 kts 41°
2026-05-06 03:56 44.09243 153.21758 35024 ft 538 kts 41°
2026-05-06 03:57 44.14276 153.29485 35023 ft 539 kts 41°
2026-05-06 03:57 44.19305 153.37230 35015 ft 539 kts 41°
2026-05-06 03:58 44.24338 153.45001 35012 ft 540 kts 41°
2026-05-06 03:58 44.29372 153.52796 35012 ft 540 kts 41°
2026-05-06 03:59 44.34392 153.60593 35004 ft 540 kts 41°
2026-05-06 03:59 44.39413 153.68412 35013 ft 540 kts 41°
2026-05-06 04:00 44.44438 153.76256 34996 ft 542 kts 41°
2026-05-06 04:00 44.49462 153.84121 34995 ft 542 kts 41°
2026-05-06 04:01 44.54479 153.92001 35001 ft 543 kts 41°
2026-05-06 04:01 44.59509 153.99919 34972 ft 544 kts 41°
2026-05-06 04:02 44.64544 154.07870 34979 ft 545 kts 41°
2026-05-06 04:02 44.69577 154.15841 34980 ft 545 kts 41°
2026-05-06 04:03 44.74602 154.23822 34966 ft 545 kts 41°
2026-05-06 04:03 44.79622 154.31816 34971 ft 545 kts 41°
2026-05-06 04:04 44.84638 154.39828 34969 ft 545 kts 41°
2026-05-06 04:04 44.89623 154.47883 34965 ft 545 kts 42°
2026-05-06 04:05 44.94540 154.56009 34958 ft 544 kts 42°
2026-05-06 04:05 44.99449 154.64148 34947 ft 544 kts 42°
2026-05-06 04:06 45.04358 154.72286 34962 ft 544 kts 42°
2026-05-06 04:06 45.09261 154.80427 34946 ft 543 kts 42°
2026-05-06 04:07 45.14157 154.88575 34938 ft 543 kts 42°
2026-05-06 04:07 45.19017 154.96689 34940 ft 543 kts 42°
2026-05-06 04:08 45.23913 155.04885 34936 ft 545 kts 42°
2026-05-06 04:08 45.28811 155.13109 34934 ft 546 kts 42°
2026-05-06 04:09 45.32910 155.20012 34925 ft 546 kts 43°
2026-05-06 04:09 45.37801 155.28272 34926 ft 546 kts 43°
2026-05-06 04:10 45.42705 155.36573 34919 ft 549 kts 43°
2026-05-06 04:10 45.47607 155.44900 34918 ft 549 kts 43°
2026-05-06 04:11 45.52506 155.53248 34931 ft 549 kts 43°
2026-05-06 04:11 45.57407 155.61622 34917 ft 551 kts 42°
2026-05-06 04:12 45.62323 155.70044 34900 ft 552 kts 42°
2026-05-06 04:12 45.67232 155.78484 34902 ft 552 kts 43°
2026-05-06 04:13 45.72136 155.86943 34901 ft 553 kts 42°
2026-05-06 04:13 45.77044 155.95431 34896 ft 553 kts 42°
2026-05-06 04:14 45.81947 156.03937 34896 ft 553 kts 42°
2026-05-06 04:14 45.86843 156.12456 34884 ft 554 kts 43°
2026-05-06 04:15 45.91735 156.20995 34884 ft 554 kts 42°
2026-05-06 04:15 45.96599 156.29510 34872 ft 554 kts 42°
2026-05-06 04:16 46.01487 156.38093 34873 ft 554 kts 43°
2026-05-06 04:16 46.06364 156.46685 34872 ft 555 kts 42°
2026-05-06 04:17 46.11245 156.55309 34860 ft 555 kts 42°
2026-05-06 04:17 46.16117 156.63943 34855 ft 555 kts 42°
2026-05-06 04:18 46.20982 156.72593 34858 ft 555 kts 42°
2026-05-06 04:18 46.25844 156.81266 34853 ft 555 kts 43°
2026-05-06 04:19 46.30696 156.89945 34845 ft 555 kts 43°
2026-05-06 04:19 46.35539 156.98636 34853 ft 555 kts 43°
2026-05-06 04:20 46.40374 157.07342 34832 ft 555 kts 43°
2026-05-06 04:20 46.45203 157.16063 34828 ft 555 kts 43°
2026-05-06 04:21 46.50026 157.24801 34824 ft 555 kts 43°
2026-05-06 04:21 46.54845 157.33559 34816 ft 555 kts 43°
2026-05-06 04:22 46.59658 157.42333 34856 ft 555 kts 43°
2026-05-06 04:23 46.66864 157.55522 34804 ft 555 kts 43°
2026-05-06 04:23 46.71667 157.64348 34800 ft 556 kts 43°
2026-05-06 04:24 46.76465 157.73193 34802 ft 556 kts 44°
2026-05-06 04:24 46.81252 157.82048 34797 ft 556 kts 44°
2026-05-06 04:25 46.86036 157.90925 34802 ft 556 kts 44°
2026-05-06 04:25 46.90815 157.99820 34794 ft 556 kts 44°
2026-05-06 04:26 46.95589 158.08736 34817 ft 557 kts 44°
2026-05-06 04:26 47.00353 158.17662 34810 ft 556 kts 44°
2026-05-06 04:27 47.05102 158.26588 34783 ft 555 kts 44°
2026-05-06 04:27 47.09843 158.35528 34782 ft 555 kts 44°
2026-05-06 04:28 47.14583 158.44494 34784 ft 555 kts 44°
2026-05-06 04:28 47.19312 158.53468 34783 ft 555 kts 44°
2026-05-06 04:29 47.24030 158.62453 34768 ft 555 kts 45°
2026-05-06 04:29 47.28707 158.71390 34769 ft 555 kts 45°
2026-05-06 04:30 47.33409 158.80402 34751 ft 555 kts 44°
2026-05-06 04:30 47.38108 158.89437 34763 ft 555 kts 45°
2026-05-06 04:31 47.42805 158.98498 34764 ft 555 kts 45°
2026-05-06 04:31 47.47491 159.07570 34760 ft 556 kts 45°
2026-05-06 04:32 47.52175 159.16667 34750 ft 556 kts 45°
2026-05-06 04:32 47.56851 159.25778 34752 ft 556 kts 45°
2026-05-06 04:33 47.61519 159.34904 34750 ft 556 kts 45°
2026-05-06 04:33 47.66183 159.44055 34787 ft 556 kts 45°
2026-05-06 04:34 47.70830 159.53198 34744 ft 554 kts 46°
2026-05-06 04:34 47.75468 159.62360 34740 ft 554 kts 46°
2026-05-06 04:35 47.80094 159.71527 34736 ft 554 kts 46°
2026-05-06 04:35 47.84717 159.80716 34737 ft 554 kts 46°
2026-05-06 04:36 47.89328 159.89914 34730 ft 554 kts 46°
2026-05-06 04:36 47.93933 159.99133 34731 ft 554 kts 46°
2026-05-06 04:37 47.98532 160.08370 34732 ft 554 kts 46°
2026-05-06 04:37 48.03125 160.17622 34733 ft 555 kts 47°
2026-05-06 04:38 48.07713 160.26898 34718 ft 555 kts 47°
2026-05-06 04:38 48.12296 160.36197 34715 ft 555 kts 47°
2026-05-06 04:39 48.16875 160.45521 34727 ft 555 kts 47°
2026-05-06 04:39 48.21442 160.54852 34714 ft 555 kts 47°
2026-05-06 04:40 48.25998 160.64193 34712 ft 555 kts 47°
2026-05-06 04:40 48.30524 160.73587 34711 ft 556 kts 49°
2026-05-06 04:41 48.34920 160.83155 34717 ft 556 kts 50°
2026-05-06 04:41 48.39282 160.92751 34706 ft 555 kts 50°
2026-05-06 04:42 48.43649 161.02330 34705 ft 554 kts 50°
2026-05-06 04:42 48.48015 161.11899 34720 ft 554 kts 50°
2026-05-06 04:43 48.52374 161.21476 34702 ft 554 kts 50°
2026-05-06 04:43 48.56721 161.31066 34697 ft 553 kts 50°
2026-05-06 04:44 48.61061 161.40674 34698 ft 553 kts 50°
2026-05-06 04:44 48.65392 161.50296 34692 ft 553 kts 50°
2026-05-06 04:45 48.69711 161.59928 34689 ft 553 kts 51°
2026-05-06 04:45 48.74016 161.69563 34693 ft 552 kts 51°
2026-05-06 04:46 48.78302 161.79193 34686 ft 550 kts 51°
2026-05-06 04:46 48.82571 161.88816 34678 ft 549 kts 51°
2026-05-06 04:47 48.86827 161.98443 34678 ft 549 kts 51°
2026-05-06 04:47 48.91073 162.08084 34679 ft 549 kts 51°
2026-05-06 04:48 48.95308 162.17732 34687 ft 549 kts 52°
2026-05-06 04:48 48.99501 162.27321 34672 ft 547 kts 52°
2026-05-06 04:49 49.03708 162.36977 34675 ft 547 kts 52°
2026-05-06 04:49 49.07905 162.46643 34680 ft 547 kts 52°
2026-05-06 04:50 49.11385 162.54687 34659 ft 545 kts 52°
2026-05-06 04:50 49.15557 162.64359 34662 ft 545 kts 53°
2026-05-06 04:51 49.19720 162.74045 34664 ft 545 kts 53°
2026-05-06 04:51 49.23874 162.83745 34651 ft 545 kts 53°
2026-05-06 04:52 49.28021 162.93463 34660 ft 545 kts 53°
2026-05-06 04:52 49.32155 163.03189 34644 ft 544 kts 53°
2026-05-06 04:53 49.36279 163.12927 34652 ft 544 kts 53°
2026-05-06 04:53 49.40398 163.22689 34647 ft 544 kts 53°
2026-05-06 04:54 49.44504 163.32455 34652 ft 544 kts 54°
2026-05-06 04:54 49.48598 163.42229 34644 ft 543 kts 54°
2026-05-06 04:55 49.52680 163.52010 34637 ft 543 kts 54°
2026-05-06 04:55 49.56750 163.61800 34639 ft 543 kts 54°
2026-05-06 04:56 49.60814 163.71608 34636 ft 543 kts 54°
2026-05-06 04:56 49.64868 163.81430 34628 ft 543 kts 54°
2026-05-06 04:57 49.68915 163.91271 34627 ft 543 kts 55°
2026-05-06 04:57 49.72948 164.01118 34628 ft 543 kts 55°
2026-05-06 04:58 49.76978 164.10991 34626 ft 543 kts 55°
2026-05-06 04:58 49.80997 164.20875 34620 ft 541 kts 55°
2026-05-06 04:59 49.84984 164.30721 34622 ft 539 kts 55°
2026-05-06 04:59 49.88958 164.40567 34619 ft 539 kts 56°
2026-05-06 05:00 49.92923 164.50427 34605 ft 538 kts 56°
2026-05-06 05:00 49.96878 164.60304 34607 ft 538 kts 56°
2026-05-06 05:01 50.00827 164.70198 34611 ft 538 kts 56°
2026-05-06 05:01 50.04765 164.80101 34605 ft 538 kts 56°
2026-05-06 05:02 50.08691 164.90013 34599 ft 538 kts 56°
2026-05-06 05:02 50.12606 164.99937 34600 ft 538 kts 56°
2026-05-06 05:03 50.16515 165.09882 34602 ft 537 kts 57°
2026-05-06 05:03 50.20413 165.19889 34600 ft 536 kts 57°
2026-05-06 05:04 50.24242 165.29879 34594 ft 536 kts 57°
2026-05-06 05:04 50.28036 165.39823 34594 ft 536 kts 57°
2026-05-06 05:05 50.31853 165.49846 34592 ft 536 kts 57°
2026-05-06 05:05 50.35665 165.59881 34585 ft 536 kts 58°
2026-05-06 05:06 50.39469 165.69934 34592 ft 536 kts 58°
2026-05-06 05:06 50.43265 165.80007 34589 ft 536 kts 58°
2026-05-06 05:07 50.47051 165.90093 34587 ft 536 kts 58°
2026-05-06 05:07 50.50829 166.00197 34582 ft 536 kts 58°
2026-05-06 05:08 50.54588 166.10290 34581 ft 535 kts 58°
2026-05-06 05:08 50.58336 166.20392 34580 ft 535 kts 59°
2026-05-06 05:09 50.62078 166.30518 34579 ft 535 kts 59°
2026-05-06 05:09 50.65809 166.40654 34578 ft 535 kts 59°
2026-05-06 05:10 50.69532 166.50810 34586 ft 535 kts 59°
2026-05-06 05:10 50.73249 166.60987 34586 ft 535 kts 59°
2026-05-06 05:11 50.76953 166.71170 34578 ft 535 kts 59°
2026-05-06 05:11 50.80652 166.81379 34575 ft 535 kts 59°
2026-05-06 05:12 50.84348 166.91620 34576 ft 536 kts 59°
2026-05-06 05:12 50.88034 167.01875 34579 ft 536 kts 59°
2026-05-06 05:13 50.91703 167.12126 34572 ft 535 kts 60°
2026-05-06 05:13 50.95370 167.22411 34570 ft 536 kts 60°
2026-05-06 05:14 50.99024 167.32703 34574 ft 535 kts 60°
2026-05-06 05:14 51.02667 167.43005 34572 ft 535 kts 60°
2026-05-06 05:15 51.06307 167.53339 34566 ft 536 kts 60°
2026-05-06 05:15 51.09932 167.63672 34567 ft 535 kts 60°
2026-05-06 05:16 51.13543 167.74009 34570 ft 534 kts 60°
2026-05-06 05:16 51.17151 167.84381 34573 ft 534 kts 60°
2026-05-06 05:17 51.20743 167.94747 34569 ft 533 kts 61°
2026-05-06 05:17 51.24320 168.05110 34563 ft 534 kts 61°
2026-05-06 05:18 51.27886 168.15487 34567 ft 533 kts 61°
2026-05-06 05:18 51.31438 168.25865 34560 ft 532 kts 61°
2026-05-06 05:19 51.34976 168.36248 34566 ft 533 kts 62°
2026-05-06 05:19 51.38516 168.46677 34556 ft 532 kts 62°
2026-05-06 05:20 51.42015 168.57026 34568 ft 531 kts 62°
2026-05-06 05:20 51.45527 168.67459 34562 ft 532 kts 62°
2026-05-06 05:21 51.49026 168.77900 34561 ft 531 kts 62°
2026-05-06 05:21 51.52537 168.88417 34563 ft 531 kts 63°
2026-05-06 05:22 51.56015 168.98880 34571 ft 530 kts 63°
2026-05-06 05:22 51.59479 169.09345 34561 ft 530 kts 63°
2026-05-06 05:23 51.62930 169.19816 34564 ft 530 kts 63°
2026-05-06 05:23 51.68098 169.35577 34569 ft 529 kts 63°
2026-05-06 05:24 51.71522 169.46075 34570 ft 529 kts 63°
2026-05-06 05:24 51.74937 169.56592 34565 ft 529 kts 63°
2026-05-06 05:25 51.78340 169.67118 34569 ft 528 kts 63°
2026-05-06 05:25 51.81737 169.77668 34561 ft 529 kts 64°
2026-05-06 05:26 51.85097 169.88145 34581 ft 528 kts 64°
2026-05-06 05:26 51.88479 169.98738 34567 ft 525 kts 64°
2026-05-06 05:27 51.91801 170.09190 34569 ft 526 kts 64°
2026-05-06 05:27 51.95138 170.19733 34569 ft 525 kts 64°
2026-05-06 05:28 51.98458 170.30267 34570 ft 524 kts 64°
2026-05-06 05:28 52.01763 170.40800 34570 ft 524 kts 64°
2026-05-06 05:29 52.05058 170.51346 34567 ft 524 kts 64°
2026-05-06 05:29 52.08345 170.61911 34570 ft 524 kts 65°
2026-05-06 05:30 52.11109 170.70670 34564 ft 524 kts 61°
2026-05-06 05:30 52.15459 170.80297 34570 ft 526 kts 51°
2026-05-06 05:31 52.20200 170.89378 34568 ft 526 kts 50°
2026-05-06 05:31 52.24995 170.98380 34566 ft 525 kts 50°
2026-05-06 05:32 52.29771 171.07399 34549 ft 525 kts 50°
2026-05-06 05:32 52.34529 171.16457 34559 ft 524 kts 51°
2026-05-06 05:33 52.39269 171.25536 34565 ft 524 kts 51°
2026-05-06 05:33 52.43998 171.34627 34565 ft 524 kts 51°
2026-05-06 05:34 52.48724 171.43743 34559 ft 524 kts 51°
2026-05-06 05:34 52.53430 171.52851 34550 ft 523 kts 51°
2026-05-06 05:35 52.58132 171.61985 34556 ft 523 kts 51°
2026-05-06 05:35 52.62825 171.71137 34556 ft 523 kts 51°
2026-05-06 05:36 52.67510 171.80306 34562 ft 523 kts 52°
2026-05-06 05:36 52.72190 171.89497 34556 ft 523 kts 52°
2026-05-06 05:37 52.76862 171.98706 34554 ft 523 kts 52°
2026-05-06 05:37 52.81518 172.07917 34553 ft 522 kts 52°
2026-05-06 05:38 52.86165 172.17146 34554 ft 522 kts 52°
2026-05-06 05:38 52.90801 172.26388 34548 ft 522 kts 52°
2026-05-06 05:39 52.95406 172.35600 34553 ft 522 kts 52°
2026-05-06 05:39 53.00027 172.44878 34550 ft 521 kts 52°
2026-05-06 05:40 53.04664 172.54220 34550 ft 520 kts 53°
2026-05-06 05:40 53.09249 172.63497 34550 ft 519 kts 53°
2026-05-06 05:41 53.13826 172.72792 34553 ft 519 kts 53°
2026-05-06 05:41 53.18398 172.82109 34546 ft 519 kts 53°
2026-05-06 05:42 53.22971 172.91458 34550 ft 521 kts 53°
2026-05-06 05:42 53.27542 173.00842 34554 ft 521 kts 54°
2026-05-06 05:43 53.32124 173.10285 34566 ft 522 kts 54°
2026-05-06 05:43 53.36655 173.19710 34567 ft 518 kts 54°
2026-05-06 05:44 53.41180 173.29087 34578 ft 517 kts 54°
2026-05-06 05:44 53.45711 173.38480 34586 ft 519 kts 55°
2026-05-06 05:45 53.50211 173.47914 34598 ft 518 kts 55°
2026-05-06 05:45 53.54512 173.57620 34605 ft 516 kts 60°
2026-05-06 05:46 53.58437 173.67706 34611 ft 515 kts 62°
2026-05-06 05:46 53.62288 173.77855 34596 ft 513 kts 62°
2026-05-06 05:47 53.66086 173.87919 34618 ft 511 kts 62°
2026-05-06 05:47 53.69894 173.98034 34628 ft 511 kts 62°
2026-05-06 05:48 53.73701 174.08175 34627 ft 511 kts 62°
2026-05-06 05:48 53.77500 174.18328 34639 ft 512 kts 62°
2026-05-06 05:49 53.81292 174.28513 34630 ft 511 kts 62°
2026-05-06 05:49 53.85066 174.38683 34660 ft 509 kts 63°
2026-05-06 05:50 53.88824 174.48854 34659 ft 509 kts 63°
2026-05-06 05:50 53.92573 174.59044 34675 ft 509 kts 63°
2026-05-06 05:51 53.96313 174.69252 34675 ft 509 kts 63°
2026-05-06 05:51 54.00044 174.79476 34686 ft 509 kts 63°
2026-05-06 05:52 54.03760 174.89698 34694 ft 508 kts 63°
2026-05-06 05:52 54.07464 174.99930 34693 ft 508 kts 63°
2026-05-06 05:53 54.11158 175.10181 34695 ft 508 kts 63°
2026-05-06 05:53 54.14844 175.20450 34706 ft 508 kts 63°
2026-05-06 05:54 54.18514 175.30713 34711 ft 506 kts 63°
2026-05-06 05:54 54.22172 175.40988 34724 ft 505 kts 64°
2026-05-06 05:55 54.25814 175.51261 34725 ft 505 kts 64°
2026-05-06 05:55 54.29450 175.61562 34741 ft 505 kts 64°
2026-05-06 05:56 54.33072 175.71865 34739 ft 505 kts 64°
2026-05-06 05:56 54.36688 175.82193 34757 ft 505 kts 64°
2026-05-06 05:57 54.40290 175.92523 34759 ft 504 kts 64°
2026-05-06 05:57 54.43881 176.02867 34767 ft 504 kts 64°
2026-05-06 05:58 54.47454 176.13200 34772 ft 502 kts 64°
2026-05-06 05:58 54.51009 176.23528 34791 ft 502 kts 64°
2026-05-06 05:59 54.54558 176.33884 34795 ft 501 kts 64°
2026-05-06 05:59 54.58091 176.44235 34805 ft 501 kts 64°
2026-05-06 06:00 54.61617 176.54609 34812 ft 501 kts 64°
2026-05-06 06:00 54.65130 176.64988 34826 ft 501 kts 65°
2026-05-06 06:01 54.68636 176.75390 34823 ft 501 kts 65°
2026-05-06 06:01 54.72134 176.85817 34834 ft 502 kts 65°
2026-05-06 06:02 54.75626 176.96268 34840 ft 502 kts 65°
2026-05-06 06:02 54.79108 177.06731 34851 ft 501 kts 65°
2026-05-06 06:03 54.82581 177.17214 34854 ft 501 kts 65°
2026-05-06 06:03 54.86046 177.27718 34867 ft 501 kts 65°
2026-05-06 06:04 54.89501 177.38239 34867 ft 502 kts 65°
2026-05-06 06:04 54.92955 177.48803 34879 ft 503 kts 65°
2026-05-06 06:05 54.96400 177.59382 34882 ft 503 kts 65°
2026-05-06 06:05 54.99836 177.69981 34892 ft 502 kts 65°
2026-05-06 06:06 55.03256 177.80576 34895 ft 501 kts 65°
2026-05-06 06:06 55.06662 177.91182 34908 ft 502 kts 65°
2026-05-06 06:07 55.10070 178.01835 34906 ft 502 kts 65°
2026-05-06 06:07 55.13470 178.12511 34919 ft 502 kts 65°
2026-05-06 06:08 55.16855 178.23186 34922 ft 502 kts 65°
2026-05-06 06:08 55.19666 178.32087 34934 ft 502 kts 65°
2026-05-06 06:09 55.23037 178.42810 34934 ft 503 kts 65°
2026-05-06 06:09 55.26405 178.53568 34943 ft 503 kts 65°
2026-05-06 06:10 55.29758 178.64324 34951 ft 502 kts 65°
2026-05-06 06:10 55.33097 178.75084 34957 ft 502 kts 65°
2026-05-06 06:11 55.36442 178.85863 34966 ft 502 kts 65°
2026-05-06 06:11 55.39781 178.96652 34964 ft 503 kts 65°
2026-05-06 06:12 55.43113 179.07470 34970 ft 503 kts 65°
2026-05-06 06:12 55.46439 179.18323 34985 ft 503 kts 65°
2026-05-06 06:13 55.49751 179.29183 34989 ft 503 kts 65°
2026-05-06 06:13 55.53053 179.40060 34998 ft 503 kts 65°
2026-05-06 06:14 55.56347 179.50964 34991 ft 503 kts 65°
2026-05-06 06:14 55.59637 179.61903 35009 ft 504 kts 65°
2026-05-06 06:15 55.62895 179.72781 35019 ft 504 kts 65°
2026-05-06 06:15 55.66168 179.83762 35021 ft 504 kts 65°
2026-05-06 06:16 55.69432 179.94765 35024 ft 504 kts 65°
2026-05-06 06:16 55.72683 -179.94222 35029 ft 505 kts 65°
2026-05-06 06:17 55.75938 -179.83143 35032 ft 507 kts 65°
2026-05-06 06:17 55.79191 -179.72024 35034 ft 507 kts 65°
2026-05-06 06:18 55.82427 -179.60909 35032 ft 506 kts 65°
2026-05-06 06:18 55.85652 -179.49777 35044 ft 506 kts 65°
2026-05-06 06:19 55.88865 -179.38634 35048 ft 506 kts 65°
2026-05-06 06:19 55.92065 -179.27481 35057 ft 506 kts 65°
2026-05-06 06:20 55.95257 -179.16302 35057 ft 506 kts 66°
2026-05-06 06:20 55.98441 -179.05099 35062 ft 505 kts 66°
2026-05-06 06:21 56.01614 -178.93878 35068 ft 505 kts 66°
2026-05-06 06:21 56.04775 -178.82647 35064 ft 506 kts 65°
2026-05-06 06:22 56.07929 -178.71383 35072 ft 507 kts 65°
2026-05-06 06:22 56.11078 -178.60086 35083 ft 507 kts 65°
2026-05-06 06:23 56.14215 -178.48774 35083 ft 507 kts 66°
2026-05-06 06:23 56.17341 -178.37450 35088 ft 507 kts 66°
2026-05-06 06:24 56.20457 -178.26100 35084 ft 507 kts 65°
2026-05-06 06:24 56.23550 -178.14777 35102 ft 509 kts 65°
2026-05-06 06:25 56.26661 -178.03336 35098 ft 509 kts 65°
2026-05-06 06:26 56.31308 -177.86137 35109 ft 510 kts 65°
2026-05-06 06:26 56.34396 -177.74635 35109 ft 510 kts 65°
2026-05-06 06:27 56.37479 -177.63093 35114 ft 511 kts 65°
2026-05-06 06:27 56.40558 -177.51510 35113 ft 512 kts 65°
2026-05-06 06:28 56.43631 -177.39887 35120 ft 512 kts 65°
2026-05-06 06:28 56.46693 -177.28249 35119 ft 512 kts 65°
2026-05-06 06:29 56.49742 -177.16598 35127 ft 512 kts 65°
2026-05-06 06:29 56.52779 -177.04926 35126 ft 513 kts 65°
2026-05-06 06:30 56.55817 -176.93196 35135 ft 514 kts 65°
2026-05-06 06:30 56.58846 -176.81442 35135 ft 514 kts 65°
2026-05-06 06:31 56.61864 -176.69663 35140 ft 514 kts 65°
2026-05-06 06:31 56.64871 -176.57868 35140 ft 514 kts 65°
2026-05-06 06:32 56.67867 -176.46052 35145 ft 515 kts 65°
2026-05-06 06:32 56.70858 -176.34190 35146 ft 516 kts 65°
2026-05-06 06:33 56.73841 -176.22301 35150 ft 516 kts 65°
2026-05-06 06:33 56.76816 -176.10380 35151 ft 516 kts 65°
2026-05-06 06:34 56.79775 -175.98456 35158 ft 516 kts 65°
2026-05-06 06:34 56.82726 -175.86499 35156 ft 517 kts 65°
2026-05-06 06:35 56.85663 -175.74503 35160 ft 517 kts 65°
2026-05-06 06:35 56.88581 -175.62486 35159 ft 517 kts 65°
2026-05-06 06:36 56.91489 -175.50445 35165 ft 517 kts 65°
2026-05-06 06:36 56.94389 -175.38381 35165 ft 518 kts 65°
2026-05-06 06:37 56.97277 -175.26300 35171 ft 518 kts 65°
2026-05-06 06:37 57.00158 -175.14189 35170 ft 518 kts 65°
2026-05-06 06:38 57.03025 -175.02058 35171 ft 518 kts 65°
2026-05-06 06:38 57.05882 -174.89904 35175 ft 518 kts 65°
2026-05-06 06:39 57.08726 -174.77737 35171 ft 518 kts 65°
2026-05-06 06:39 57.11558 -174.65550 35179 ft 518 kts 65°
2026-05-06 06:40 57.14381 -174.53338 35182 ft 519 kts 65°
2026-05-06 06:40 57.17194 -174.41094 35179 ft 519 kts 65°
2026-05-06 06:41 57.19981 -174.28895 35185 ft 519 kts 65°
2026-05-06 06:41 57.22771 -174.16614 35185 ft 519 kts 65°
2026-05-06 06:42 57.25551 -174.04301 35193 ft 519 kts 65°
2026-05-06 06:42 57.28318 -173.91973 35185 ft 520 kts 64°
2026-05-06 06:43 57.31081 -173.79600 35184 ft 520 kts 64°
2026-05-06 06:43 57.33830 -173.67210 35183 ft 520 kts 64°
2026-05-06 06:44 57.36619 -173.54845 35184 ft 520 kts 64°
2026-05-06 06:44 57.39430 -173.42499 35192 ft 520 kts 64°
2026-05-06 06:45 57.42225 -173.30125 35189 ft 520 kts 64°
2026-05-06 06:45 57.45006 -173.17701 35194 ft 520 kts 64°
2026-05-06 06:46 57.47765 -173.05280 35201 ft 520 kts 64°
2026-05-06 06:46 57.50522 -172.92801 35195 ft 521 kts 64°
2026-05-06 06:47 57.53262 -172.80321 35194 ft 521 kts 64°
2026-05-06 06:47 57.55991 -172.67822 35194 ft 521 kts 64°
2026-05-06 06:48 57.58707 -172.55304 35191 ft 521 kts 64°
2026-05-06 06:48 57.61412 -172.42759 35187 ft 521 kts 64°
2026-05-06 06:49 57.64103 -172.30202 35191 ft 521 kts 64°
2026-05-06 06:49 57.66780 -172.17634 35187 ft 521 kts 64°
2026-05-06 06:50 57.69450 -172.05024 35201 ft 521 kts 64°
2026-05-06 06:50 57.72100 -171.92430 35200 ft 520 kts 64°
2026-05-06 06:51 57.74738 -171.79816 35195 ft 520 kts 64°
2026-05-06 06:51 57.76920 -171.69322 35198 ft 520 kts 64°
2026-05-06 06:52 57.79537 -171.56667 35195 ft 520 kts 64°
2026-05-06 06:52 57.82139 -171.44002 35206 ft 521 kts 64°
2026-05-06 06:53 57.84729 -171.31315 35195 ft 520 kts 64°
2026-05-06 06:53 57.87303 -171.18628 35198 ft 520 kts 64°
2026-05-06 06:54 57.89864 -171.05922 35213 ft 520 kts 64°
2026-05-06 06:54 57.92410 -170.93214 35199 ft 520 kts 64°
2026-05-06 06:55 57.94949 -170.80460 35218 ft 520 kts 65°
2026-05-06 06:55 57.97521 -170.67775 35197 ft 517 kts 63°
2026-05-06 06:56 58.00250 -170.55243 35198 ft 516 kts 62°
2026-05-06 06:56 58.02981 -170.42711 35197 ft 517 kts 63°
2026-05-06 06:57 58.05675 -170.30125 35198 ft 517 kts 63°
2026-05-06 06:57 58.08340 -170.17515 35197 ft 517 kts 63°
2026-05-06 06:58 58.10990 -170.04884 35204 ft 516 kts 63°
2026-05-06 06:58 58.13624 -169.92250 35202 ft 515 kts 63°
2026-05-06 06:59 58.16243 -169.79622 35201 ft 515 kts 64°
2026-05-06 06:59 58.18852 -169.66965 35196 ft 516 kts 64°
2026-05-06 07:00 58.21447 -169.54295 35196 ft 516 kts 64°
2026-05-06 07:00 58.24033 -169.41589 35199 ft 516 kts 64°
2026-05-06 07:01 58.26600 -169.28890 35194 ft 514 kts 64°
2026-05-06 07:01 58.29150 -169.16197 35192 ft 514 kts 64°
2026-05-06 07:02 58.31688 -169.03492 35190 ft 513 kts 65°
2026-05-06 07:02 58.34209 -168.90782 35190 ft 513 kts 65°
2026-05-06 07:03 58.36716 -168.78065 35191 ft 513 kts 65°
2026-05-06 07:03 58.39211 -168.65327 35186 ft 512 kts 66°
2026-05-06 07:04 58.41688 -168.52596 35184 ft 512 kts 66°
2026-05-06 07:04 58.44152 -168.39846 35185 ft 512 kts 66°
2026-05-06 07:05 58.46603 -168.27085 35184 ft 512 kts 66°
2026-05-06 07:05 58.49042 -168.14304 35190 ft 512 kts 66°
2026-05-06 07:06 58.51465 -168.01523 35183 ft 509 kts 68°
2026-05-06 07:06 58.53840 -167.88897 35179 ft 507 kts 68°
2026-05-06 07:07 58.56218 -167.76186 35180 ft 507 kts 68°
2026-05-06 07:07 58.58583 -167.63458 35178 ft 507 kts 68°
2026-05-06 07:08 58.60936 -167.50708 35177 ft 507 kts 68°
2026-05-06 07:08 58.63276 -167.37947 35178 ft 507 kts 68°
2026-05-06 07:09 58.65601 -167.25176 35171 ft 506 kts 69°
2026-05-06 07:09 58.67913 -167.12396 35170 ft 506 kts 69°
2026-05-06 07:10 58.70212 -166.99596 35171 ft 506 kts 69°
2026-05-06 07:10 58.72522 -166.86796 35170 ft 506 kts 69°
2026-05-06 07:11 58.74839 -166.74004 35165 ft 506 kts 69°
2026-05-06 07:11 58.77146 -166.61181 35165 ft 506 kts 69°
2026-05-06 07:12 58.79432 -166.48353 35163 ft 506 kts 69°
2026-05-06 07:12 58.81706 -166.35503 35165 ft 506 kts 69°
2026-05-06 07:13 58.83966 -166.22636 35167 ft 506 kts 69°
2026-05-06 07:13 58.86213 -166.09752 35165 ft 506 kts 69°
2026-05-06 07:14 58.88444 -165.96876 35157 ft 504 kts 69°
2026-05-06 07:14 58.90666 -165.84014 35159 ft 504 kts 69°
2026-05-06 07:15 58.92885 -165.71143 35161 ft 504 kts 69°
2026-05-06 07:15 58.95091 -165.58249 35159 ft 504 kts 69°
2026-05-06 07:16 58.97282 -165.45343 35162 ft 504 kts 69°
2026-05-06 07:16 58.99460 -165.32419 35159 ft 504 kts 70°
2026-05-06 07:17 59.01625 -165.19483 35168 ft 504 kts 69°
2026-05-06 07:17 59.03762 -165.06616 35171 ft 504 kts 69°
2026-05-06 07:18 59.05898 -164.93662 35153 ft 503 kts 69°
2026-05-06 07:18 59.08022 -164.80692 35156 ft 503 kts 70°
2026-05-06 07:19 59.10133 -164.67705 35150 ft 504 kts 70°
2026-05-06 07:19 59.12231 -164.54698 35152 ft 504 kts 70°
2026-05-06 07:20 59.14317 -164.41670 35153 ft 504 kts 70°
2026-05-06 07:20 59.16387 -164.28642 35150 ft 503 kts 70°
2026-05-06 07:21 59.18446 -164.15594 35149 ft 503 kts 70°
2026-05-06 07:21 59.20491 -164.02528 35152 ft 503 kts 70°
2026-05-06 07:22 59.22522 -163.89454 35145 ft 503 kts 70°
2026-05-06 07:22 59.24541 -163.76356 35143 ft 503 kts 70°
2026-05-06 07:23 59.26546 -163.63253 35142 ft 503 kts 69°
2026-05-06 07:23 59.28538 -163.50128 35137 ft 504 kts 70°
2026-05-06 07:24 59.30520 -163.36970 35134 ft 504 kts 70°
2026-05-06 07:24 59.32486 -163.23815 35122 ft 504 kts 70°
2026-05-06 07:25 59.34441 -163.10631 35125 ft 504 kts 70°
2026-05-06 07:25 59.36382 -162.97428 35138 ft 504 kts 70°
2026-05-06 07:26 59.38315 -162.84181 35126 ft 506 kts 70°
2026-05-06 07:26 59.40238 -162.70897 35120 ft 506 kts 70°
2026-05-06 07:27 59.42148 -162.57591 35117 ft 506 kts 70°
2026-05-06 07:27 59.44043 -162.44277 35119 ft 506 kts 70°
2026-05-06 07:28 59.45926 -162.30944 35109 ft 506 kts 70°
2026-05-06 07:28 59.49178 -162.11236 35108 ft 505 kts 66°
2026-05-06 07:29 59.51446 -161.98218 35122 ft 506 kts 66°
2026-05-06 07:29 59.53671 -161.85057 35103 ft 507 kts 67°
2026-05-06 07:30 59.55859 -161.71831 35101 ft 507 kts 67°
2026-05-06 07:30 59.58023 -161.58610 35098 ft 507 kts 68°
2026-05-06 07:31 59.60180 -161.45344 35092 ft 507 kts 68°
2026-05-06 07:31 59.62323 -161.32077 35075 ft 507 kts 68°
2026-05-06 07:32 59.64455 -161.18779 35061 ft 507 kts 68°
2026-05-06 07:32 59.66572 -161.05468 35049 ft 507 kts 68°
2026-05-06 07:33 59.68679 -160.92124 35051 ft 508 kts 68°
2026-05-06 07:33 59.70772 -160.78772 35036 ft 508 kts 68°
2026-05-06 07:34 59.72503 -160.67642 35032 ft 508 kts 68°
2026-05-06 07:34 59.74909 -160.52056 35040 ft 509 kts 69°
2026-05-06 07:35 59.76632 -160.40814 35014 ft 509 kts 69°
2026-05-06 07:35 59.78677 -160.27365 35031 ft 509 kts 69°
2026-05-06 07:36 59.80707 -160.13900 35022 ft 509 kts 69°
2026-05-06 07:36 59.82724 -160.00415 35024 ft 509 kts 69°
2026-05-06 07:37 59.84728 -159.86915 35017 ft 509 kts 69°
2026-05-06 07:37 59.86721 -159.73380 35004 ft 510 kts 70°
2026-05-06 07:38 59.88700 -159.59823 35006 ft 510 kts 70°
2026-05-06 07:38 59.90669 -159.46233 35008 ft 510 kts 70°
2026-05-06 07:39 59.92622 -159.32648 35009 ft 510 kts 70°
2026-05-06 07:39 59.94563 -159.19020 34994 ft 510 kts 70°
2026-05-06 07:40 59.96488 -159.05377 35022 ft 511 kts 71°
2026-05-06 07:40 59.98400 -158.91722 34992 ft 510 kts 71°
2026-05-06 07:41 60.00295 -158.78077 34987 ft 510 kts 71°
2026-05-06 07:41 60.02177 -158.64409 34987 ft 510 kts 71°
2026-05-06 07:42 60.04046 -158.50714 34987 ft 510 kts 71°
2026-05-06 07:42 60.05900 -158.37005 34986 ft 510 kts 71°
2026-05-06 07:43 60.07739 -158.23287 34989 ft 510 kts 72°
2026-05-06 07:43 60.09567 -158.09533 34985 ft 511 kts 72°
2026-05-06 07:44 60.11382 -157.95757 34980 ft 511 kts 73°
2026-05-06 07:44 60.13182 -157.81972 34973 ft 511 kts 73°
2026-05-06 07:45 60.14967 -157.68168 34975 ft 511 kts 73°
2026-05-06 07:45 60.16738 -157.54347 34972 ft 511 kts 73°
2026-05-06 07:46 60.18495 -157.40511 34976 ft 511 kts 73°
2026-05-06 07:46 60.20240 -157.26650 34974 ft 512 kts 74°
2026-05-06 07:47 60.21970 -157.12766 34965 ft 512 kts 74°
2026-05-06 07:47 60.23687 -156.98864 34962 ft 512 kts 74°
2026-05-06 07:48 60.25389 -156.84945 34960 ft 512 kts 74°
2026-05-06 07:48 60.27076 -156.71016 34962 ft 512 kts 74°
2026-05-06 07:49 60.28747 -156.57082 34959 ft 512 kts 75°
2026-05-06 07:49 60.30407 -156.43114 34959 ft 512 kts 75°
2026-05-06 07:50 60.32052 -156.29123 34953 ft 513 kts 75°
2026-05-06 07:50 60.33683 -156.15115 34959 ft 513 kts 75°
2026-05-06 07:51 60.35299 -156.01094 34954 ft 513 kts 75°
2026-05-06 07:51 60.36901 -155.87057 34951 ft 512 kts 76°
2026-05-06 07:52 60.38487 -155.73015 34954 ft 512 kts 76°
2026-05-06 07:52 60.40059 -155.58955 34942 ft 513 kts 76°
2026-05-06 07:53 60.41616 -155.44873 34948 ft 513 kts 76°
2026-05-06 07:53 60.43162 -155.30752 34943 ft 513 kts 76°
2026-05-06 07:54 60.44691 -155.16638 34925 ft 513 kts 77°
2026-05-06 07:54 60.46205 -155.02509 34929 ft 513 kts 77°
2026-05-06 07:55 60.47705 -154.88360 34920 ft 513 kts 77°
2026-05-06 07:55 60.49189 -154.74207 34918 ft 513 kts 77°
2026-05-06 07:56 60.51067 -154.60355 34917 ft 513 kts 72°
2026-05-06 07:56 60.53253 -154.46572 34905 ft 513 kts 71°
2026-05-06 07:57 60.55472 -154.32810 34909 ft 513 kts 71°
2026-05-06 07:57 60.57677 -154.19014 34896 ft 513 kts 71°
2026-05-06 07:58 60.59857 -154.05209 34898 ft 513 kts 71°
2026-05-06 07:58 60.62022 -153.91372 34896 ft 513 kts 72°
2026-05-06 07:59 60.64177 -153.77483 34885 ft 514 kts 72°
2026-05-06 07:59 60.66315 -153.63590 34877 ft 514 kts 72°
2026-05-06 08:00 60.68443 -153.49661 34880 ft 514 kts 72°
2026-05-06 08:00 60.70554 -153.35719 34863 ft 514 kts 72°
2026-05-06 08:01 60.72651 -153.21761 34859 ft 514 kts 73°
2026-05-06 08:01 60.74734 -153.07790 34855 ft 514 kts 73°
2026-05-06 08:02 60.76800 -152.93807 34855 ft 514 kts 73°
2026-05-06 08:02 60.78856 -152.79781 34856 ft 514 kts 73°
2026-05-06 08:03 60.80896 -152.65744 34851 ft 514 kts 74°
2026-05-06 08:03 60.82920 -152.51690 34850 ft 514 kts 74°
2026-05-06 08:04 60.84931 -152.37615 34848 ft 514 kts 74°
2026-05-06 08:04 60.86928 -152.23519 34849 ft 514 kts 74°
2026-05-06 08:05 60.88910 -152.09412 34848 ft 515 kts 75°
2026-05-06 08:05 60.90879 -151.95259 34851 ft 516 kts 75°
2026-05-06 08:06 60.92837 -151.81073 34853 ft 516 kts 75°
2026-05-06 08:06 60.94777 -151.66885 34854 ft 516 kts 75°
2026-05-06 08:07 60.96705 -151.52661 34848 ft 516 kts 75°
2026-05-06 08:07 60.98616 -151.38434 34848 ft 516 kts 75°
2026-05-06 08:08 61.00512 -151.24186 34849 ft 515 kts 75°
2026-05-06 08:08 61.02296 -151.10667 34839 ft 517 kts 76°
2026-05-06 08:09 61.04039 -150.97343 34842 ft 517 kts 76°
2026-05-06 08:09 61.05797 -150.83781 34841 ft 517 kts 76°
2026-05-06 08:10 61.07623 -150.69566 34844 ft 517 kts 76°
2026-05-06 08:10 61.09459 -150.55142 34849 ft 517 kts 76°
2026-05-06 08:11 61.11273 -150.40752 34847 ft 517 kts 76°
2026-05-06 08:11 61.13073 -150.26334 34841 ft 517 kts 76°
2026-05-06 08:12 61.14856 -150.11917 34842 ft 517 kts 77°
2026-05-06 08:12 61.16746 -149.97548 34830 ft 518 kts 71°
2026-05-06 08:13 61.19676 -149.84002 34859 ft 518 kts 64°
2026-05-06 08:13 61.22880 -149.70588 34859 ft 519 kts 64°
2026-05-06 08:14 61.26111 -149.57202 34860 ft 519 kts 64°
2026-05-06 08:14 61.29320 -149.43763 34861 ft 519 kts 64°
2026-05-06 08:15 61.32504 -149.30282 34880 ft 519 kts 64°
2026-05-06 08:15 61.35158 -149.18964 34876 ft 519 kts 64°
2026-05-06 08:16 61.38295 -149.05508 34852 ft 520 kts 65°
2026-05-06 08:16 61.41448 -148.91904 34857 ft 521 kts 65°
2026-05-06 08:17 61.44591 -148.78261 34854 ft 521 kts 65°
2026-05-06 08:17 61.47717 -148.64600 34868 ft 521 kts 65°
2026-05-06 08:18 61.50833 -148.50892 34863 ft 521 kts 65°
2026-05-06 08:18 61.53936 -148.37161 34863 ft 521 kts 65°
2026-05-06 08:19 61.57021 -148.23416 34865 ft 521 kts 65°
2026-05-06 08:19 61.60099 -148.09620 34878 ft 521 kts 65°
2026-05-06 08:20 61.63161 -147.95797 34873 ft 521 kts 66°
2026-05-06 08:20 61.66209 -147.81954 34868 ft 522 kts 66°
2026-05-06 08:21 61.69249 -147.68051 34867 ft 523 kts 66°
2026-05-06 08:21 61.72280 -147.54094 34873 ft 523 kts 66°
2026-05-06 08:22 61.75293 -147.40131 34865 ft 523 kts 66°
2026-05-06 08:22 61.78298 -147.26113 34867 ft 524 kts 66°
2026-05-06 08:23 61.81288 -147.12074 34879 ft 524 kts 66°
2026-05-06 08:23 61.84263 -146.98011 34864 ft 524 kts 66°
2026-05-06 08:24 61.87223 -146.83920 34871 ft 524 kts 67°
2026-05-06 08:24 61.90172 -146.69786 34874 ft 524 kts 67°
2026-05-06 08:25 61.93105 -146.55630 34875 ft 525 kts 67°
2026-05-06 08:25 61.96031 -146.41411 34872 ft 526 kts 67°
2026-05-06 08:26 61.98947 -146.27143 34871 ft 526 kts 67°
2026-05-06 08:26 62.01845 -146.12860 34887 ft 526 kts 68°
2026-05-06 08:27 62.04727 -145.98559 34878 ft 526 kts 68°
2026-05-06 08:27 62.07597 -145.84219 34866 ft 526 kts 68°
2026-05-06 08:28 62.10451 -145.69857 34872 ft 525 kts 68°
2026-05-06 08:28 62.13289 -145.55473 34858 ft 525 kts 68°
2026-05-06 08:29 62.16127 -145.41065 34855 ft 525 kts 66°
2026-05-06 08:29 62.19415 -145.27088 34895 ft 527 kts 62°
2026-05-06 08:30 62.22903 -145.13270 34893 ft 527 kts 62°
2026-05-06 08:30 62.26321 -144.99354 34896 ft 527 kts 63°
2026-05-06 08:31 62.29669 -144.85342 34895 ft 527 kts 63°
2026-05-06 08:31 62.32985 -144.71275 34892 ft 527 kts 64°
2026-05-06 08:32 62.36282 -144.57200 34902 ft 527 kts 64°
2026-05-06 08:32 62.39570 -144.43083 34898 ft 527 kts 64°
2026-05-06 08:33 62.42845 -144.28940 34892 ft 527 kts 64°
2026-05-06 08:33 62.46106 -144.14761 34891 ft 527 kts 64°
2026-05-06 08:34 62.50971 -143.93433 34890 ft 527 kts 64°
2026-05-06 08:35 62.54196 -143.79183 34880 ft 527 kts 65°
2026-05-06 08:35 62.57412 -143.64872 34884 ft 528 kts 65°
2026-05-06 08:36 62.60612 -143.50538 34883 ft 528 kts 65°
2026-05-06 08:36 62.63799 -143.36160 34877 ft 528 kts 65°
2026-05-06 08:37 62.66970 -143.21762 34873 ft 528 kts 65°
2026-05-06 08:37 62.70125 -143.07336 34850 ft 527 kts 65°
2026-05-06 08:38 62.73253 -142.92937 34851 ft 525 kts 65°
2026-05-06 08:38 62.76365 -142.78518 34834 ft 525 kts 65°
2026-05-06 08:39 62.79459 -142.64079 34836 ft 525 kts 65°
2026-05-06 08:39 62.82538 -142.49607 34809 ft 525 kts 66°
2026-05-06 08:40 62.85603 -142.35101 34803 ft 524 kts 66°
2026-05-06 08:40 62.88649 -142.20591 34791 ft 525 kts 66°
2026-05-06 08:41 62.91693 -142.05983 34781 ft 526 kts 66°
2026-05-06 08:41 62.94333 -141.91044 34785 ft 524 kts 78°
2026-05-06 08:42 62.95321 -141.75262 34784 ft 521 kts 87°
2026-05-06 08:42 62.95862 -141.59385 34799 ft 521 kts 88°
2026-05-06 08:43 62.96322 -141.43484 34820 ft 522 kts 89°
2026-05-06 08:43 62.96783 -141.27562 34821 ft 522 kts 89°
2026-05-06 08:44 62.97245 -141.11634 34811 ft 522 kts 89°
2026-05-06 08:44 62.97696 -140.95675 34827 ft 524 kts 89°
2026-05-06 08:45 62.98130 -140.79685 34825 ft 524 kts 89°
2026-05-06 08:45 62.98545 -140.63684 34827 ft 524 kts 89°
2026-05-06 08:46 62.98942 -140.47684 34828 ft 524 kts 89°
2026-05-06 08:46 62.99320 -140.31687 34831 ft 524 kts 90°
2026-05-06 08:47 62.99680 -140.15673 34828 ft 524 kts 90°
2026-05-06 08:47 63.00022 -139.99646 34829 ft 525 kts 90°
2026-05-06 08:48 63.00493 -139.83572 34823 ft 527 kts 88°
2026-05-06 08:48 63.01084 -139.67489 34823 ft 527 kts 88°
2026-05-06 08:49 63.01645 -139.51397 34827 ft 527 kts 88°
2026-05-06 08:49 63.02159 -139.35312 34819 ft 527 kts 89°
2026-05-06 08:50 63.02644 -139.19226 34823 ft 526 kts 89°
2026-05-06 08:50 63.03105 -139.03242 34806 ft 526 kts 89°
2026-05-06 08:51 63.03555 -138.87123 34824 ft 528 kts 89°
2026-05-06 08:51 63.03988 -138.70957 34823 ft 529 kts 90°
2026-05-06 08:52 63.04404 -138.54761 34814 ft 529 kts 90°
2026-05-06 08:52 63.04798 -138.38597 34814 ft 529 kts 90°
2026-05-06 08:53 63.05176 -138.22408 34812 ft 529 kts 90°
2026-05-06 08:53 63.05536 -138.06215 34807 ft 529 kts 90°
2026-05-06 08:54 63.05877 -137.90019 34805 ft 528 kts 90°
2026-05-06 08:54 63.06198 -137.73835 34805 ft 528 kts 90°
2026-05-06 08:55 63.06502 -137.57644 34804 ft 528 kts 90°
2026-05-06 08:55 63.06787 -137.41445 34804 ft 528 kts 90°
2026-05-06 08:56 63.07010 -137.27980 34802 ft 528 kts 90°
2026-05-06 08:56 63.07261 -137.11830 34800 ft 526 kts 91°
2026-05-06 08:57 63.07492 -136.95699 34804 ft 525 kts 91°
2026-05-06 08:57 63.07704 -136.79577 34804 ft 526 kts 91°
2026-05-06 08:58 63.07898 -136.63447 34806 ft 526 kts 91°
2026-05-06 08:58 63.08074 -136.47321 34818 ft 526 kts 91°
2026-05-06 08:59 63.08233 -136.31187 34818 ft 526 kts 91°
2026-05-06 08:59 63.08374 -136.15063 34816 ft 524 kts 92°
2026-05-06 09:00 63.08495 -135.99038 34813 ft 521 kts 92°
2026-05-06 09:00 63.08597 -135.83058 34805 ft 521 kts 92°
2026-05-06 09:01 63.08681 -135.67059 34807 ft 521 kts 92°
2026-05-06 09:01 63.08748 -135.51061 34797 ft 521 kts 92°
2026-05-06 09:02 63.08797 -135.35076 34795 ft 521 kts 92°
2026-05-06 09:02 63.08827 -135.19086 34788 ft 521 kts 93°
2026-05-06 09:03 63.08838 -135.03102 34782 ft 521 kts 93°
2026-05-06 09:03 63.08833 -134.87101 34781 ft 521 kts 94°
2026-05-06 09:04 63.08809 -134.71093 34773 ft 522 kts 94°
2026-05-06 09:04 63.08768 -134.55079 34770 ft 522 kts 94°
2026-05-06 09:05 63.08708 -134.39071 34768 ft 521 kts 94°
2026-05-06 09:05 63.08633 -134.23071 34761 ft 521 kts 94°
2026-05-06 09:06 63.08536 -134.07066 34766 ft 521 kts 94°
2026-05-06 09:06 63.08420 -133.91084 34770 ft 521 kts 94°
2026-05-06 09:07 63.08289 -133.75091 34720 ft 521 kts 94°
2026-05-06 09:07 63.08138 -133.59099 34760 ft 522 kts 94°
2026-05-06 09:08 63.07972 -133.43072 34756 ft 522 kts 95°
2026-05-06 09:08 63.07786 -133.27056 34752 ft 522 kts 95°
2026-05-06 09:09 63.07583 -133.11047 34753 ft 522 kts 95°
2026-05-06 09:09 63.07360 -132.95050 34751 ft 520 kts 95°
2026-05-06 09:10 63.07120 -132.79148 34761 ft 518 kts 95°
2026-05-06 09:10 63.06863 -132.63289 34742 ft 518 kts 95°
2026-05-06 09:11 63.06589 -132.47419 34760 ft 518 kts 95°
2026-05-06 09:11 63.06298 -132.31561 34762 ft 518 kts 95°
2026-05-06 09:12 63.05991 -132.15805 34766 ft 518 kts 96°
2026-05-06 09:12 63.05665 -131.99957 34766 ft 517 kts 96°
2026-05-06 09:13 63.05321 -131.84132 34776 ft 516 kts 96°
2026-05-06 09:13 63.04961 -131.68342 34767 ft 515 kts 96°
2026-05-06 09:14 63.04582 -131.52572 34765 ft 516 kts 96°
2026-05-06 09:14 63.04181 -131.36750 34774 ft 517 kts 96°
2026-05-06 09:15 63.03765 -131.20942 34770 ft 517 kts 96°
2026-05-06 09:15 63.03336 -131.05135 34767 ft 516 kts 96°
2026-05-06 09:16 63.02889 -130.89347 34766 ft 516 kts 96°
2026-05-06 09:16 63.02424 -130.73596 34762 ft 514 kts 97°
2026-05-06 09:17 63.01942 -130.57910 34766 ft 513 kts 97°
2026-05-06 09:17 63.01442 -130.42232 34771 ft 514 kts 97°
2026-05-06 09:18 63.00925 -130.26539 34775 ft 514 kts 97°
2026-05-06 09:18 63.00392 -130.10855 34777 ft 513 kts 97°
2026-05-06 09:19 62.99826 -129.95187 34768 ft 513 kts 98°
2026-05-06 09:19 62.98894 -129.79657 34766 ft 511 kts 102°
2026-05-06 09:20 62.97809 -129.64216 34767 ft 511 kts 102°
2026-05-06 09:20 62.96749 -129.48737 34759 ft 512 kts 102°
2026-05-06 09:21 62.95715 -129.33246 34770 ft 513 kts 101°
2026-05-06 09:21 62.94675 -129.17740 34761 ft 513 kts 102°
2026-05-06 09:22 62.93619 -129.02260 34766 ft 513 kts 102°
2026-05-06 09:22 62.92543 -128.86785 34764 ft 513 kts 102°
2026-05-06 09:23 62.91449 -128.71321 34742 ft 512 kts 102°
2026-05-06 09:23 62.90344 -128.55917 34737 ft 510 kts 102°
2026-05-06 09:24 62.89221 -128.40552 34755 ft 511 kts 102°
2026-05-06 09:24 62.88087 -128.25256 34748 ft 512 kts 103°
2026-05-06 09:25 62.86929 -128.09875 34742 ft 511 kts 103°
2026-05-06 09:25 62.85754 -127.94511 34742 ft 512 kts 103°
2026-05-06 09:26 62.84563 -127.79156 34734 ft 511 kts 103°
2026-05-06 09:26 62.83356 -127.63818 34748 ft 511 kts 103°
2026-05-06 09:27 62.82127 -127.48430 34738 ft 509 kts 103°
2026-05-06 09:27 62.80892 -127.33214 34740 ft 508 kts 103°
2026-05-06 09:28 62.79644 -127.18031 34732 ft 508 kts 104°
2026-05-06 09:28 62.78379 -127.02856 34732 ft 508 kts 104°
2026-05-06 09:29 62.77107 -126.87803 34719 ft 507 kts 104°
2026-05-06 09:29 62.75808 -126.72640 34724 ft 508 kts 104°
2026-05-06 09:30 62.74496 -126.57511 34696 ft 508 kts 104°
2026-05-06 09:30 62.73163 -126.42359 34707 ft 509 kts 105°
2026-05-06 09:31 62.71817 -126.27234 34705 ft 507 kts 105°
2026-05-06 09:31 62.70455 -126.12137 34701 ft 507 kts 105°
2026-05-06 09:32 62.69076 -125.97064 34699 ft 507 kts 105°
2026-05-06 09:32 62.67684 -125.82033 34701 ft 507 kts 105°
2026-05-06 09:33 62.66275 -125.67007 34698 ft 506 kts 105°
2026-05-06 09:33 62.64846 -125.51959 34694 ft 510 kts 105°
2026-05-06 09:34 62.63395 -125.36863 34679 ft 511 kts 105°
2026-05-06 09:34 62.61925 -125.21730 34679 ft 512 kts 106°
2026-05-06 09:35 62.60437 -125.06593 34676 ft 513 kts 106°
2026-05-06 09:35 62.58932 -124.91464 34674 ft 512 kts 106°
2026-05-06 09:36 62.57410 -124.76355 34680 ft 512 kts 106°
2026-05-06 09:36 62.55871 -124.61281 34669 ft 514 kts 106°
2026-05-06 09:37 62.54310 -124.46131 34673 ft 516 kts 106°
2026-05-06 09:37 62.52729 -124.30986 34660 ft 515 kts 106°
2026-05-06 09:38 62.51411 -124.18471 34669 ft 511 kts 106°
2026-05-06 09:38 62.49817 -124.03508 34668 ft 510 kts 106°
2026-05-06 09:39 62.48207 -123.88558 34666 ft 510 kts 106°
2026-05-06 09:39 62.46580 -123.73630 34642 ft 510 kts 106°
2026-05-06 09:40 62.44935 -123.58677 34663 ft 513 kts 106°
2026-05-06 09:40 62.42427 -123.36184 34689 ft 514 kts 106°
2026-05-06 09:41 62.40736 -123.21222 34687 ft 513 kts 106°
2026-05-06 09:41 62.39034 -123.06331 34703 ft 511 kts 106°
2026-05-06 09:42 62.37321 -122.91486 34703 ft 510 kts 107°
2026-05-06 09:42 62.35591 -122.76664 34698 ft 511 kts 106°
2026-05-06 09:43 62.33839 -122.61804 34713 ft 513 kts 106°
2026-05-06 09:43 62.32067 -122.46912 34713 ft 513 kts 107°
2026-05-06 09:44 62.30283 -122.32073 34725 ft 513 kts 107°
2026-05-06 09:44 62.28482 -122.17246 34729 ft 512 kts 107°
2026-05-06 09:45 62.26673 -122.02494 34741 ft 510 kts 107°
2026-05-06 09:45 62.24852 -121.87792 34723 ft 509 kts 107°
2026-05-06 09:46 62.23012 -121.73089 34774 ft 513 kts 107°
2026-05-06 09:46 62.22080 -121.65700 35035 ft 513 kts 107°
2026-05-06 09:46 62.21148 -121.58336 35387 ft 512 kts 107°
2026-05-06 09:47 62.20213 -121.50983 35695 ft 512 kts 107°
2026-05-06 09:47 62.19273 -121.43625 35973 ft 512 kts 107°
2026-05-06 09:47 62.18327 -121.36260 36247 ft 513 kts 107°
2026-05-06 09:47 62.17378 -121.28908 36533 ft 513 kts 107°
2026-05-06 09:48 62.16425 -121.21554 36804 ft 513 kts 107°
2026-05-06 09:48 62.15468 -121.14211 37069 ft 513 kts 107°
2026-05-06 09:48 62.14502 -121.06830 37229 ft 516 kts 107°
2026-05-06 09:48 62.13532 -120.99452 37422 ft 517 kts 108°
2026-05-06 09:49 62.12554 -120.92060 37711 ft 516 kts 107°
2026-05-06 09:49 62.11578 -120.84709 38083 ft 514 kts 107°
2026-05-06 09:49 62.10600 -120.77372 38316 ft 514 kts 107°
2026-05-06 09:49 62.09615 -120.70019 38514 ft 515 kts 107°
2026-05-06 09:50 62.08629 -120.62683 38676 ft 515 kts 107°
2026-05-06 09:50 62.07636 -120.55337 38896 ft 515 kts 107°
2026-05-06 09:50 62.06641 -120.48009 39080 ft 514 kts 107°
2026-05-06 09:50 62.05644 -120.40700 39251 ft 514 kts 108°
2026-05-06 09:51 62.04639 -120.33365 39416 ft 514 kts 108°
2026-05-06 09:51 62.03631 -120.26044 39578 ft 514 kts 108°
2026-05-06 09:51 62.02620 -120.18735 39762 ft 514 kts 108°
2026-05-06 09:51 62.01606 -120.11439 39920 ft 514 kts 108°
2026-05-06 09:52 61.99232 -119.97097 40077 ft 515 kts 116°
2026-05-06 09:52 61.97706 -119.90296 40229 ft 515 kts 117°
2026-05-06 09:52 61.96087 -119.83405 40383 ft 514 kts 118°
2026-05-06 09:53 61.94457 -119.76636 40529 ft 514 kts 118°
2026-05-06 09:53 61.92814 -119.69894 40661 ft 514 kts 119°
2026-05-06 09:53 61.91167 -119.63158 40784 ft 514 kts 119°
2026-05-06 09:53 61.89539 -119.56504 40851 ft 515 kts 118°
2026-05-06 09:54 61.86238 -119.43023 40856 ft 515 kts 119°
2026-05-06 09:54 61.82934 -119.29569 40843 ft 515 kts 119°
2026-05-06 09:55 61.79615 -119.16126 40868 ft 516 kts 119°
2026-05-06 09:55 61.76283 -119.02717 40867 ft 516 kts 119°
2026-05-06 09:56 61.72934 -118.89323 40868 ft 516 kts 119°
2026-05-06 09:56 61.69571 -118.75958 40864 ft 516 kts 119°
2026-05-06 09:57 61.66200 -118.62640 40875 ft 516 kts 119°
2026-05-06 09:57 61.62810 -118.49324 40876 ft 516 kts 120°
2026-05-06 09:58 61.59389 -118.35971 40873 ft 516 kts 120°
2026-05-06 09:58 61.55996 -118.22805 40873 ft 516 kts 120°
2026-05-06 09:59 61.52569 -118.09585 40878 ft 516 kts 120°
2026-05-06 09:59 61.49134 -117.96409 40879 ft 516 kts 120°
2026-05-06 10:00 61.45680 -117.83244 40883 ft 517 kts 120°
2026-05-06 10:00 61.42209 -117.70091 40893 ft 517 kts 120°
2026-05-06 10:01 61.38718 -117.56938 40895 ft 518 kts 120°
2026-05-06 10:01 61.35214 -117.43810 40895 ft 518 kts 120°
2026-05-06 10:02 61.31701 -117.30729 40895 ft 518 kts 120°
2026-05-06 10:02 61.28168 -117.17651 40918 ft 518 kts 120°
2026-05-06 10:03 61.24623 -117.04601 40901 ft 519 kts 120°
2026-05-06 10:03 61.21058 -116.91555 40900 ft 519 kts 120°
2026-05-06 10:04 61.17486 -116.78558 40920 ft 519 kts 120°
2026-05-06 10:04 61.13899 -116.65579 40935 ft 519 kts 121°
2026-05-06 10:05 61.10299 -116.52635 40933 ft 519 kts 120°
2026-05-06 10:05 61.06684 -116.39712 40930 ft 519 kts 120°
2026-05-06 10:06 61.03063 -116.26827 40944 ft 519 kts 120°
2026-05-06 10:06 60.99426 -116.13961 40946 ft 519 kts 120°
2026-05-06 10:07 60.95776 -116.01127 40950 ft 519 kts 120°
2026-05-06 10:07 60.92115 -115.88329 40933 ft 519 kts 120°
2026-05-06 10:08 60.88443 -115.75560 40943 ft 520 kts 121°
2026-05-06 10:08 60.84752 -115.62799 40942 ft 520 kts 121°
2026-05-06 10:09 60.81052 -115.50074 40950 ft 520 kts 121°
2026-05-06 10:09 60.77337 -115.37376 40963 ft 519 kts 120°
2026-05-06 10:10 60.73619 -115.24733 40985 ft 519 kts 120°
2026-05-06 10:10 60.69891 -115.12124 40985 ft 519 kts 120°
2026-05-06 10:11 60.66139 -114.99503 40992 ft 520 kts 121°
2026-05-06 10:11 60.62380 -114.86929 41005 ft 520 kts 121°
2026-05-06 10:12 60.58632 -114.74460 40995 ft 520 kts 121°
2026-05-06 10:12 60.54846 -114.61934 41013 ft 520 kts 121°
2026-05-06 10:13 60.51021 -114.49347 41022 ft 521 kts 121°
2026-05-06 10:13 60.47228 -114.36933 41026 ft 521 kts 121°
2026-05-06 10:14 60.43399 -114.24469 41029 ft 521 kts 121°
2026-05-06 10:14 60.39548 -114.12000 41036 ft 522 kts 121°
2026-05-06 10:15 60.35689 -113.99572 41050 ft 522 kts 121°
2026-05-06 10:15 60.31813 -113.87157 41056 ft 523 kts 121°
2026-05-06 10:16 60.27919 -113.74748 41057 ft 524 kts 121°
2026-05-06 10:16 60.24012 -113.62366 41069 ft 524 kts 121°
2026-05-06 10:17 60.20092 -113.50008 41070 ft 524 kts 121°
2026-05-06 10:17 60.16167 -113.37700 41078 ft 524 kts 121°
2026-05-06 10:18 60.12221 -113.25394 41078 ft 524 kts 121°
2026-05-06 10:18 60.08259 -113.13102 41097 ft 525 kts 121°
2026-05-06 10:19 60.04286 -113.00841 41093 ft 525 kts 121°
2026-05-06 10:19 60.00970 -112.90653 41098 ft 525 kts 121°
2026-05-06 10:20 59.96972 -112.78433 41106 ft 525 kts 121°
2026-05-06 10:20 59.92964 -112.66246 41109 ft 526 kts 121°
2026-05-06 10:21 59.88936 -112.54062 41109 ft 526 kts 121°
2026-05-06 10:21 59.84893 -112.41894 41102 ft 526 kts 121°
2026-05-06 10:22 59.80843 -112.29770 41109 ft 526 kts 122°
2026-05-06 10:22 59.76779 -112.17666 41146 ft 526 kts 122°
2026-05-06 10:23 59.72707 -112.05601 41118 ft 526 kts 122°
2026-05-06 10:23 59.68631 -111.93588 41132 ft 526 kts 122°
2026-05-06 10:24 59.64538 -111.81584 41132 ft 526 kts 122°
2026-05-06 10:24 59.60436 -111.69615 41135 ft 526 kts 122°
2026-05-06 10:25 59.56325 -111.57680 41135 ft 526 kts 122°
2026-05-06 10:25 59.52200 -111.45766 41143 ft 526 kts 122°
2026-05-06 10:26 59.48058 -111.33864 41143 ft 527 kts 122°
2026-05-06 10:26 59.43908 -111.22001 41143 ft 527 kts 122°
2026-05-06 10:27 59.39773 -111.10236 41158 ft 526 kts 122°
2026-05-06 10:27 59.35597 -110.98419 41151 ft 526 kts 122°
2026-05-06 10:28 59.31419 -110.86650 41147 ft 527 kts 122°
2026-05-06 10:28 59.27218 -110.74875 41161 ft 527 kts 122°
2026-05-06 10:29 59.23011 -110.63146 41159 ft 527 kts 122°
2026-05-06 10:29 59.18795 -110.51449 41160 ft 527 kts 122°
2026-05-06 10:30 59.14563 -110.39763 41162 ft 527 kts 123°
2026-05-06 10:30 59.10318 -110.28102 41167 ft 528 kts 123°
2026-05-06 10:31 59.06060 -110.16462 41200 ft 528 kts 123°
2026-05-06 10:31 59.01798 -110.04873 41150 ft 526 kts 123°
2026-05-06 10:32 58.97985 -109.92844 41176 ft 522 kts 116°
2026-05-06 10:32 58.94470 -109.80544 41177 ft 522 kts 115°
2026-05-06 10:33 58.90983 -109.68198 41167 ft 522 kts 115°
2026-05-06 10:33 58.87479 -109.55876 41175 ft 523 kts 115°
2026-05-06 10:34 58.83955 -109.43593 41177 ft 523 kts 115°
2026-05-06 10:34 58.80412 -109.31329 41198 ft 523 kts 116°
2026-05-06 10:35 58.76863 -109.19113 41208 ft 521 kts 116°
2026-05-06 10:35 58.73318 -109.06972 41209 ft 519 kts 116°
2026-05-06 10:36 58.69768 -108.94874 41200 ft 519 kts 116°
2026-05-06 10:36 58.66209 -108.82804 41212 ft 519 kts 116°
2026-05-06 10:37 58.62638 -108.70760 41210 ft 519 kts 116°
2026-05-06 10:37 58.59052 -108.58729 41224 ft 519 kts 116°
2026-05-06 10:38 58.55456 -108.46727 41222 ft 519 kts 116°
2026-05-06 10:38 58.51875 -108.34835 41222 ft 519 kts 116°
2026-05-06 10:39 58.48264 -108.22904 41229 ft 519 kts 116°
2026-05-06 10:39 58.44638 -108.10984 41228 ft 519 kts 116°
2026-05-06 10:40 58.41002 -107.99093 41221 ft 519 kts 116°
2026-05-06 10:40 58.37356 -107.87230 41230 ft 519 kts 117°
2026-05-06 10:41 58.33697 -107.75389 41228 ft 519 kts 117°
2026-05-06 10:41 58.30028 -107.63571 41227 ft 519 kts 117°
2026-05-06 10:42 58.26348 -107.51779 41238 ft 518 kts 117°
2026-05-06 10:42 58.22658 -107.40012 41233 ft 519 kts 117°
2026-05-06 10:43 58.18952 -107.28257 41227 ft 519 kts 117°
2026-05-06 10:44 58.13377 -107.10678 41223 ft 519 kts 117°
2026-05-06 10:44 58.09648 -106.98992 41220 ft 519 kts 117°
2026-05-06 10:45 58.05899 -106.87305 41240 ft 520 kts 117°
2026-05-06 10:45 58.02140 -106.75641 41247 ft 520 kts 117°
2026-05-06 10:46 57.98374 -106.64016 41232 ft 519 kts 118°
2026-05-06 10:46 57.94602 -106.52428 41237 ft 519 kts 118°
2026-05-06 10:47 57.90818 -106.40858 41235 ft 519 kts 118°
2026-05-06 10:47 57.87023 -106.29313 41232 ft 519 kts 118°
2026-05-06 10:48 57.83216 -106.17788 41234 ft 519 kts 118°
2026-05-06 10:48 57.79401 -106.06293 41236 ft 519 kts 118°
2026-05-06 10:49 57.75572 -105.94815 41257 ft 519 kts 118°
2026-05-06 10:49 57.71736 -105.83366 41232 ft 519 kts 118°
2026-05-06 10:50 57.67894 -105.71958 41231 ft 518 kts 119°
2026-05-06 10:50 57.64038 -105.60562 41232 ft 518 kts 119°
2026-05-06 10:51 57.60173 -105.49193 41225 ft 518 kts 119°
2026-05-06 10:51 57.56303 -105.37866 41218 ft 518 kts 119°
2026-05-06 10:52 57.52419 -105.26548 41217 ft 519 kts 119°
2026-05-06 10:52 57.48524 -105.15255 41248 ft 519 kts 120°
2026-05-06 10:53 57.44623 -105.03993 41226 ft 518 kts 120°
2026-05-06 10:53 57.40715 -104.92769 41222 ft 517 kts 120°
2026-05-06 10:54 57.36799 -104.81571 41223 ft 517 kts 120°
2026-05-06 10:54 57.32876 -104.70407 41227 ft 518 kts 120°
2026-05-06 10:55 57.28940 -104.59258 41219 ft 518 kts 120°
2026-05-06 10:55 57.24992 -104.48127 41218 ft 518 kts 120°
2026-05-06 10:56 57.21030 -104.37006 41242 ft 518 kts 120°
2026-05-06 10:56 57.17068 -104.25937 41220 ft 517 kts 121°
2026-05-06 10:57 57.13100 -104.14905 41220 ft 516 kts 121°
2026-05-06 10:57 57.09124 -104.03898 41223 ft 516 kts 121°
2026-05-06 10:58 57.05137 -103.92912 41205 ft 517 kts 121°
2026-05-06 10:58 57.01139 -103.81946 41223 ft 517 kts 121°
2026-05-06 10:59 56.97132 -103.71004 41219 ft 517 kts 121°
2026-05-06 10:59 56.93140 -103.60151 41220 ft 517 kts 121°
2026-05-06 11:00 56.89118 -103.49268 41216 ft 516 kts 121°
2026-05-06 11:00 56.85062 -103.38342 41216 ft 516 kts 121°
2026-05-06 11:01 56.81052 -103.27589 41213 ft 516 kts 122°
2026-05-06 11:01 56.77011 -103.16801 41211 ft 516 kts 122°
2026-05-06 11:02 56.73609 -103.07754 41211 ft 516 kts 122°
2026-05-06 11:02 56.69540 -102.96980 41214 ft 516 kts 122°
2026-05-06 11:03 56.65464 -102.86234 41226 ft 516 kts 122°
2026-05-06 11:03 56.61384 -102.75523 41207 ft 515 kts 122°
2026-05-06 11:04 56.57299 -102.64848 41208 ft 515 kts 122°
2026-05-06 11:04 56.53197 -102.54177 41206 ft 515 kts 122°
2026-05-06 11:05 56.49091 -102.43541 41210 ft 515 kts 122°
2026-05-06 11:05 56.45000 -102.32989 41208 ft 515 kts 122°
2026-05-06 11:06 56.40872 -102.22391 41208 ft 515 kts 122°
2026-05-06 11:06 56.36737 -102.11818 41215 ft 515 kts 123°
2026-05-06 11:07 56.32599 -102.01283 41205 ft 515 kts 123°
2026-05-06 11:07 56.28453 -101.90773 41203 ft 515 kts 123°
2026-05-06 11:08 56.24299 -101.80289 41199 ft 515 kts 123°
2026-05-06 11:08 56.20133 -101.69821 41194 ft 515 kts 123°
2026-05-06 11:09 56.15963 -101.59387 41196 ft 515 kts 123°
2026-05-06 11:09 56.11779 -101.48963 41198 ft 515 kts 123°
2026-05-06 11:10 56.07589 -101.38566 41195 ft 514 kts 123°
2026-05-06 11:10 56.03389 -101.28191 41197 ft 514 kts 123°
2026-05-06 11:11 55.99187 -101.17854 41195 ft 514 kts 124°
2026-05-06 11:11 55.94972 -101.07530 41195 ft 514 kts 124°
2026-05-06 11:12 55.90759 -100.97253 41183 ft 514 kts 124°
2026-05-06 11:12 55.86522 -100.86962 41180 ft 514 kts 124°
2026-05-06 11:13 55.82281 -100.76704 41185 ft 514 kts 124°
2026-05-06 11:13 55.78035 -100.66480 41200 ft 514 kts 124°
2026-05-06 11:14 55.73776 -100.56262 41182 ft 514 kts 124°
2026-05-06 11:14 55.69507 -100.46064 41187 ft 514 kts 124°
2026-05-06 11:15 55.65235 -100.35900 41178 ft 514 kts 124°
2026-05-06 11:15 55.60950 -100.25748 41191 ft 515 kts 124°
2026-05-06 11:16 55.56660 -100.15629 41197 ft 515 kts 124°
2026-05-06 11:16 55.52353 -100.05510 41192 ft 515 kts 125°
2026-05-06 11:17 55.48064 -99.95417 41182 ft 513 kts 124°
2026-05-06 11:17 55.43904 -99.85209 41178 ft 513 kts 123°
2026-05-06 11:18 55.39765 -99.74978 41183 ft 513 kts 123°
2026-05-06 11:18 55.35602 -99.64797 41173 ft 513 kts 123°
2026-05-06 11:19 55.31416 -99.54649 41177 ft 513 kts 124°
2026-05-06 11:19 55.27221 -99.44531 41174 ft 513 kts 124°
2026-05-06 11:20 55.23013 -99.34425 41181 ft 512 kts 124°
2026-05-06 11:20 55.18811 -99.24371 41167 ft 512 kts 124°
2026-05-06 11:21 55.14592 -99.14318 41172 ft 512 kts 124°
2026-05-06 11:21 55.10375 -99.04308 41170 ft 512 kts 124°
2026-05-06 11:22 55.06140 -98.94298 41161 ft 512 kts 124°
2026-05-06 11:22 55.01932 -98.84390 41163 ft 512 kts 124°
2026-05-06 11:23 54.97660 -98.74375 41169 ft 512 kts 124°
2026-05-06 11:23 54.93413 -98.64454 41152 ft 511 kts 124°
2026-05-06 11:24 54.89158 -98.54557 41152 ft 511 kts 125°
2026-05-06 11:24 54.84903 -98.44699 41145 ft 511 kts 125°
2026-05-06 11:25 54.80634 -98.34849 41145 ft 511 kts 125°
2026-05-06 11:25 54.76382 -98.25077 41143 ft 511 kts 125°
2026-05-06 11:26 54.72096 -98.15264 41140 ft 511 kts 125°
2026-05-06 11:26 54.67810 -98.05488 41136 ft 510 kts 125°
2026-05-06 11:27 54.63518 -97.95740 41131 ft 510 kts 126°
2026-05-06 11:27 54.59219 -97.86015 41129 ft 510 kts 126°
2026-05-06 11:28 54.54881 -97.76249 41133 ft 510 kts 126°
2026-05-06 11:28 54.50564 -97.66556 41123 ft 510 kts 126°
2026-05-06 11:29 54.46270 -97.56951 41122 ft 510 kts 126°
2026-05-06 11:29 54.41942 -97.47308 41120 ft 510 kts 126°
2026-05-06 11:30 54.37602 -97.37679 41118 ft 509 kts 126°
2026-05-06 11:30 54.33261 -97.28103 41116 ft 509 kts 126°
2026-05-06 11:31 54.28910 -97.18534 41108 ft 509 kts 126°
2026-05-06 11:31 54.24529 -97.08909 41113 ft 509 kts 126°
2026-05-06 11:32 54.20198 -96.99438 41105 ft 509 kts 126°
2026-05-06 11:32 54.15802 -96.89868 41105 ft 509 kts 127°
2026-05-06 11:33 54.11456 -96.80447 41103 ft 508 kts 127°
2026-05-06 11:33 54.07073 -96.70980 41097 ft 508 kts 127°
2026-05-06 11:34 54.02687 -96.61544 41097 ft 508 kts 127°
2026-05-06 11:34 53.98288 -96.52115 41091 ft 509 kts 127°
2026-05-06 11:35 53.93889 -96.42720 41089 ft 509 kts 127°
2026-05-06 11:35 53.89478 -96.33337 41088 ft 509 kts 127°
2026-05-06 11:36 53.85059 -96.23971 41084 ft 508 kts 127°
2026-05-06 11:36 53.80641 -96.14643 41083 ft 508 kts 127°
2026-05-06 11:37 53.76214 -96.05331 41079 ft 508 kts 127°
2026-05-06 11:37 53.71775 -95.96029 41079 ft 508 kts 128°
2026-05-06 11:38 53.67334 -95.86756 41076 ft 508 kts 128°
2026-05-06 11:38 53.62881 -95.77494 41072 ft 508 kts 128°
2026-05-06 11:39 53.58425 -95.68259 41072 ft 508 kts 128°
2026-05-06 11:39 53.53965 -95.59051 41068 ft 508 kts 128°
2026-05-06 11:40 53.49494 -95.49853 41064 ft 508 kts 128°
2026-05-06 11:40 53.45019 -95.40681 41064 ft 508 kts 128°
2026-05-06 11:41 53.40537 -95.31528 41070 ft 508 kts 128°
2026-05-06 11:41 53.36046 -95.22390 41071 ft 508 kts 128°
2026-05-06 11:42 53.31550 -95.13277 41076 ft 508 kts 128°
2026-05-06 11:42 53.27804 -95.05709 41052 ft 507 kts 128°
2026-05-06 11:43 53.23297 -94.96632 41053 ft 507 kts 129°
2026-05-06 11:43 53.18786 -94.87583 41070 ft 507 kts 129°
2026-05-06 11:44 53.12010 -94.74048 41067 ft 507 kts 129°
2026-05-06 11:44 53.07477 -94.65036 41051 ft 508 kts 129°
2026-05-06 11:45 53.02940 -94.56047 41042 ft 508 kts 129°
2026-05-06 11:45 52.98398 -94.47081 41056 ft 508 kts 129°
2026-05-06 11:46 52.93844 -94.38124 41047 ft 508 kts 129°
2026-05-06 11:46 52.89284 -94.29185 41051 ft 508 kts 129°
2026-05-06 11:47 52.84709 -94.20251 41042 ft 508 kts 129°
2026-05-06 11:47 52.80135 -94.11349 41048 ft 508 kts 129°
2026-05-06 11:48 52.75578 -94.02512 41047 ft 508 kts 129°
2026-05-06 11:48 52.70965 -93.93600 41039 ft 507 kts 129°
2026-05-06 11:49 52.66372 -93.84756 41051 ft 507 kts 130°
2026-05-06 11:49 52.61806 -93.75995 41031 ft 508 kts 130°
2026-05-06 11:50 52.57200 -93.67190 41044 ft 507 kts 130°
2026-05-06 11:50 52.52591 -93.58408 41027 ft 507 kts 130°
2026-05-06 11:51 52.47967 -93.49629 41027 ft 508 kts 130°
2026-05-06 11:51 52.43344 -93.40884 41032 ft 508 kts 130°
2026-05-06 11:52 52.38715 -93.32157 41021 ft 507 kts 130°
2026-05-06 11:52 52.34076 -93.23441 41018 ft 508 kts 130°
2026-05-06 11:53 52.29430 -93.14744 41019 ft 508 kts 130°
2026-05-06 11:53 52.24783 -93.06073 41020 ft 508 kts 130°
2026-05-06 11:54 52.20123 -92.97408 41012 ft 508 kts 130°
2026-05-06 11:54 52.15465 -92.88776 41010 ft 508 kts 131°
2026-05-06 11:55 52.10782 -92.80130 41013 ft 509 kts 131°
2026-05-06 11:55 52.06097 -92.71508 41004 ft 509 kts 131°
2026-05-06 11:56 52.01406 -92.62908 40996 ft 509 kts 131°
2026-05-06 11:56 51.96706 -92.54318 40996 ft 510 kts 131°
2026-05-06 11:57 51.91989 -92.45727 40996 ft 509 kts 131°
2026-05-06 11:57 51.87273 -92.37167 40997 ft 510 kts 131°
2026-05-06 11:58 51.82542 -92.28610 40996 ft 510 kts 131°
2026-05-06 11:58 51.77811 -92.20081 40992 ft 509 kts 131°
2026-05-06 11:59 51.73073 -92.11568 40990 ft 511 kts 131°
2026-05-06 11:59 51.68315 -92.03050 40990 ft 510 kts 131°
2026-05-06 12:00 51.63561 -91.94566 40994 ft 510 kts 131°
2026-05-06 12:00 51.58796 -91.86089 40984 ft 511 kts 132°
2026-05-06 12:01 51.54030 -91.77642 40984 ft 509 kts 132°
2026-05-06 12:01 51.49258 -91.69211 40979 ft 511 kts 132°
2026-05-06 12:02 51.44474 -91.60789 40979 ft 510 kts 132°
2026-05-06 12:02 51.39689 -91.52394 40975 ft 510 kts 132°
2026-05-06 12:03 51.34886 -91.43993 40972 ft 515 kts 132°
2026-05-06 12:03 51.30027 -91.35524 40973 ft 519 kts 133°
2026-05-06 12:04 51.25120 -91.27000 40971 ft 523 kts 133°
2026-05-06 12:04 51.20186 -91.18461 40971 ft 523 kts 133°
2026-05-06 12:05 51.15279 -91.09996 40963 ft 523 kts 133°
2026-05-06 12:05 51.10328 -91.01481 40962 ft 524 kts 133°
2026-05-06 12:06 51.05376 -90.92994 40966 ft 523 kts 133°
2026-05-06 12:06 51.00419 -90.84527 40964 ft 523 kts 133°
2026-05-06 12:07 50.95462 -90.76091 40958 ft 522 kts 134°
2026-05-06 12:07 50.90501 -90.67676 40952 ft 523 kts 134°
2026-05-06 12:08 50.85526 -90.59266 40952 ft 523 kts 134°
2026-05-06 12:08 50.80550 -90.50879 40944 ft 523 kts 134°
2026-05-06 12:09 50.75560 -90.42497 40946 ft 524 kts 134°
2026-05-06 12:09 50.70565 -90.34136 40935 ft 523 kts 134°
2026-05-06 12:10 50.65566 -90.25798 40938 ft 523 kts 134°
2026-05-06 12:10 50.60595 -90.17532 40934 ft 523 kts 134°
2026-05-06 12:11 50.55587 -90.09231 40928 ft 523 kts 134°
2026-05-06 12:11 50.50535 -90.00887 40932 ft 523 kts 134°
2026-05-06 12:12 50.45486 -89.92775 40926 ft 522 kts 136°
2026-05-06 12:12 50.40302 -89.84789 40921 ft 522 kts 137°
2026-05-06 12:13 50.35113 -89.76817 40927 ft 523 kts 136°
2026-05-06 12:13 50.29930 -89.68826 40928 ft 523 kts 136°
2026-05-06 12:14 50.24749 -89.60838 40923 ft 523 kts 136°
2026-05-06 12:14 50.19565 -89.52869 40924 ft 523 kts 136°
2026-05-06 12:15 50.14377 -89.44921 40919 ft 523 kts 137°
2026-05-06 12:15 50.09177 -89.36982 40927 ft 523 kts 137°
2026-05-06 12:16 50.03970 -89.29058 40916 ft 523 kts 137°
2026-05-06 12:16 49.98760 -89.21155 40911 ft 523 kts 137°
2026-05-06 12:17 49.93547 -89.13271 40915 ft 523 kts 137°
2026-05-06 12:17 49.88326 -89.05402 40915 ft 523 kts 137°
2026-05-06 12:18 49.83095 -88.97542 40918 ft 523 kts 137°
2026-05-06 12:18 49.77867 -88.89713 40915 ft 523 kts 137°
2026-05-06 12:19 49.72632 -88.81897 40911 ft 523 kts 137°
2026-05-06 12:19 49.67392 -88.74098 40913 ft 523 kts 137°
2026-05-06 12:20 49.62144 -88.66312 40909 ft 524 kts 137°
2026-05-06 12:20 49.56883 -88.58530 40908 ft 523 kts 138°
2026-05-06 12:21 49.51624 -88.50776 40907 ft 523 kts 138°
2026-05-06 12:21 49.46358 -88.43037 40904 ft 524 kts 138°
2026-05-06 12:22 49.41118 -88.35360 40905 ft 524 kts 138°
2026-05-06 12:22 49.35835 -88.27644 40909 ft 524 kts 138°
2026-05-06 12:23 49.30553 -88.19954 40904 ft 524 kts 138°
2026-05-06 12:23 49.25260 -88.12270 40906 ft 524 kts 139°
2026-05-06 12:24 49.19963 -88.04606 40900 ft 524 kts 139°
2026-05-06 12:24 49.14654 -87.96947 40901 ft 524 kts 139°
2026-05-06 12:25 49.09345 -87.89313 40900 ft 524 kts 139°
2026-05-06 12:25 49.04029 -87.81692 40895 ft 525 kts 139°
2026-05-06 12:26 48.99572 -87.75319 40897 ft 525 kts 139°
2026-05-06 12:26 48.94245 -87.67725 40896 ft 525 kts 139°
2026-05-06 12:27 48.88904 -87.60136 40896 ft 525 kts 139°
2026-05-06 12:27 48.83598 -87.52619 40898 ft 525 kts 139°
2026-05-06 12:28 48.78218 -87.45033 40899 ft 525 kts 140°
2026-05-06 12:28 48.72866 -87.37509 40897 ft 525 kts 140°
2026-05-06 12:29 48.67507 -87.29988 40903 ft 525 kts 140°
2026-05-06 12:29 48.62148 -87.22487 40903 ft 525 kts 140°
2026-05-06 12:30 48.56783 -87.15001 40908 ft 525 kts 140°
2026-05-06 12:30 48.51406 -87.07520 40914 ft 526 kts 140°
2026-05-06 12:31 48.46024 -87.00054 40909 ft 526 kts 140°
2026-05-06 12:31 48.40641 -86.92610 40914 ft 526 kts 140°
2026-05-06 12:32 48.35246 -86.85172 40911 ft 526 kts 141°
2026-05-06 12:32 48.29836 -86.77736 40917 ft 527 kts 141°
2026-05-06 12:33 48.24432 -86.70331 40919 ft 527 kts 141°
2026-05-06 12:33 48.19011 -86.62925 40919 ft 527 kts 141°
2026-05-06 12:34 48.13627 -86.55589 40919 ft 527 kts 141°